Time,TemperatureF,DewpointF,PressureIn,WindDirection,WindDirectionDegrees,WindSpeedMPH,WindSpeedGustMPH,Humidity,HourlyPrecipIn,Conditions,Clouds,dailyrainin,SoftwareType,DateUTC
2013-02-06 00:00:00,5.0,-21.7,29.86,NW,326,5.4,5.4,27,0.00,,---,0.00,VWS V14.00,2013-02-06 05:00:00,
2013-02-06 00:05:00,5.2,-21.5,29.86,NW,326,5.4,5.4,27,0.00,,---,0.00,VWS V14.00,2013-02-06 05:05:00,
2013-02-06 00:10:00,5.2,-21.5,29.83,NW,326,5.4,5.4,27,0.00,,---,0.00,VWS V14.00,2013-02-06 05:10:00,
2013-02-06 00:15:00,5.2,-21.5,29.83,NW,326,5.4,5.4,27,0.00,,---,0.00,VWS V14.00,2013-02-06 05:15:00,
2013-02-06 00:20:00,5.0,-21.7,29.83,NW,326,4.7,4.7,27,0.00,,---,0.00,VWS V14.00,2013-02-06 05:20:00,
2013-02-06 00:25:00,5.0,-21.7,29.86,NW,326,4.7,4.7,27,0.00,,---,0.00,VWS V14.00,2013-02-06 05:25:00,
2013-02-06 00:26:00,5.0,-21.7,29.86,NW,326,4.7,5.4,27,0.00,,---,0.00,VWS V14.00,2013-02-06 05:26:00,
2013-02-06 00:30:00,5.0,-21.7,29.86,NW,326,5.4,5.4,27,0.00,,---,0.00,VWS V14.00,2013-02-06 05:30:00,
2013-02-06 00:31:00,5.0,-21.7,29.86,NW,326,4.7,5.4,27,0.00,,---,0.00,VWS V14.00,2013-02-06 05:31:00,
2013-02-06 00:35:00,4.6,-22.0,29.86,NW,326,5.4,5.4,27,0.00,,---,0.00,VWS V14.00,2013-02-06 05:35:00,
2013-02-06 00:36:00,4.6,-22.0,29.86,NW,326,3.4,5.4,27,0.00,,---,0.00,VWS V14.00,2013-02-06 05:36:00,
2013-02-06 00:40:00,4.3,-22.3,29.86,NW,326,4.0,4.7,27,0.00,,---,0.00,VWS V14.00,2013-02-06 05:40:00,
2013-02-06 00:41:00,4.1,-22.5,29.86,NW,326,5.4,5.4,27,0.00,,---,0.00,VWS V14.00,2013-02-06 05:41:00,
2013-02-06 00:45:00,4.1,-22.5,29.86,NW,326,4.7,4.7,27,0.00,,---,0.00,VWS V14.00,2013-02-06 05:45:00,
2013-02-06 00:46:00,4.3,-22.3,29.86,NW,326,4.7,4.7,27,0.00,,---,0.00,VWS V14.00,2013-02-06 05:46:00,
2013-02-06 00:50:00,4.5,-22.1,29.86,NW,326,3.4,3.4,27,0.00,,---,0.00,VWS V14.00,2013-02-06 05:50:00,
2013-02-06 00:51:00,4.3,-22.3,29.86,NW,326,3.4,4.0,27,0.00,,---,0.00,VWS V14.00,2013-02-06 05:51:00,
2013-02-06 00:55:00,3.9,-22.6,29.86,NW,326,4.0,4.0,27,0.00,,---,0.00,VWS V14.00,2013-02-06 05:55:00,
2013-02-06 00:56:00,3.9,-22.6,29.86,NW,326,3.4,4.0,27,0.00,,---,0.00,VWS V14.00,2013-02-06 05:56:00,
2013-02-06 01:00:00,3.7,-22.8,29.86,NW,326,4.0,4.7,27,0.00,,---,0.00,VWS V14.00,2013-02-06 06:00:00,
2013-02-06 01:01:00,3.6,-22.9,29.86,NW,326,3.4,4.7,27,0.00,,---,0.00,VWS V14.00,2013-02-06 06:01:00,
2013-02-06 01:05:00,3.7,-22.8,29.86,NW,326,4.7,5.4,27,0.00,,---,0.00,VWS V14.00,2013-02-06 06:05:00,
2013-02-06 01:06:00,3.9,-22.6,29.86,NW,326,5.4,5.4,27,0.00,,---,0.00,VWS V14.00,2013-02-06 06:06:00,
2013-02-06 01:10:00,3.7,-22.8,29.86,NW,326,4.0,4.7,27,0.00,,---,0.00,VWS V14.00,2013-02-06 06:10:00,
2013-02-06 01:11:00,3.7,-22.8,29.86,NW,326,4.0,4.7,27,0.00,,---,0.00,VWS V14.00,2013-02-06 06:11:00,
2013-02-06 01:12:00,3.7,-22.8,29.86,NW,326,4.7,4.7,27,0.00,,---,0.00,VWS V14.00,2013-02-06 06:12:00,
2013-02-06 01:15:00,3.6,-22.9,29.86,NW,326,4.0,4.7,27,0.00,,---,0.00,VWS V14.00,2013-02-06 06:15:00,
2013-02-06 01:16:00,3.6,-22.9,29.86,NW,326,4.7,4.7,27,0.00,,---,0.00,VWS V14.00,2013-02-06 06:16:00,
2013-02-06 01:17:00,3.4,-23.1,29.86,NW,326,4.0,4.7,27,0.00,,---,0.00,VWS V14.00,2013-02-06 06:17:00,
2013-02-06 01:20:00,3.2,-23.2,29.86,NW,326,0.0,0.0,27,0.00,,---,0.00,VWS V14.00,2013-02-06 06:20:00,
2013-02-06 01:21:00,3.2,-23.2,29.86,NW,326,0.0,0.0,27,0.00,,---,0.00,VWS V14.00,2013-02-06 06:21:00,
2013-02-06 01:22:00,3.0,-23.4,29.86,NW,326,0.0,0.0,27,0.00,,---,0.00,VWS V14.00,2013-02-06 06:22:00,
2013-02-06 01:25:00,2.8,-23.5,29.86,NW,326,0.0,0.0,27,0.00,,---,0.00,VWS V14.00,2013-02-06 06:25:00,
2013-02-06 01:26:00,2.8,-23.5,29.86,NW,326,0.0,0.0,27,0.00,,---,0.00,VWS V14.00,2013-02-06 06:26:00,
2013-02-06 01:27:00,2.8,-23.5,29.86,NW,325,0.0,0.0,27,0.00,,---,0.00,VWS V14.00,2013-02-06 06:27:00,
2013-02-06 01:30:00,2.5,-23.9,29.86,NW,326,0.0,0.0,27,0.00,,---,0.00,VWS V14.00,2013-02-06 06:30:00,
2013-02-06 01:31:00,2.5,-23.9,29.86,NW,326,0.0,0.0,27,0.00,,---,0.00,VWS V14.00,2013-02-06 06:31:00,
2013-02-06 01:32:00,2.5,-23.9,29.86,NW,326,0.0,0.0,27,0.00,,---,0.00,VWS V14.00,2013-02-06 06:32:00,
2013-02-06 01:35:00,2.7,-23.7,29.86,NW,326,0.0,0.0,27,0.00,,---,0.00,VWS V14.00,2013-02-06 06:35:00,
2013-02-06 01:36:00,2.7,-23.7,29.86,NW,326,0.0,0.0,27,0.00,,---,0.00,VWS V14.00,2013-02-06 06:36:00,
2013-02-06 01:37:00,2.7,-23.7,29.86,NW,325,0.0,0.0,27,0.00,,---,0.00,VWS V14.00,2013-02-06 06:37:00,
2013-02-06 01:41:00,2.5,-23.9,29.86,NW,325,0.0,0.0,27,0.00,,---,0.00,VWS V14.00,2013-02-06 06:41:00,
2013-02-06 01:42:00,2.5,-23.9,29.86,NW,326,0.0,0.0,27,0.00,,---,0.00,VWS V14.00,2013-02-06 06:42:00,
2013-02-06 01:46:00,2.1,-24.2,29.86,NW,326,0.0,0.0,27,0.00,,---,0.00,VWS V14.00,2013-02-06 06:46:00,
2013-02-06 01:47:00,2.1,-24.2,29.86,NW,326,0.0,0.0,27,0.00,,---,0.00,VWS V14.00,2013-02-06 06:47:00,
2013-02-06 01:51:00,1.9,-24.3,29.86,NW,326,0.0,0.0,27,0.00,,---,0.00,VWS V14.00,2013-02-06 06:51:00,
2013-02-06 01:52:00,1.9,-24.3,29.86,NW,326,0.0,0.0,27,0.00,,---,0.00,VWS V14.00,2013-02-06 06:52:00,
2013-02-06 01:56:00,1.9,-24.3,29.86,NW,325,0.0,0.0,27,0.00,,---,0.00,VWS V14.00,2013-02-06 06:56:00,
2013-02-06 01:57:00,1.9,-24.3,29.86,NW,326,0.0,0.0,27,0.00,,---,0.00,VWS V14.00,2013-02-06 06:57:00,
2013-02-06 02:01:00,2.1,-24.2,29.86,NW,326,0.0,0.0,27,0.00,,---,0.00,VWS V14.00,2013-02-06 07:01:00,
2013-02-06 02:02:00,2.1,-24.2,29.86,NW,326,0.0,0.0,27,0.00,,---,0.00,VWS V14.00,2013-02-06 07:02:00,
2013-02-06 02:06:00,1.9,-24.3,29.86,NW,326,0.0,0.0,27,0.00,,---,0.00,VWS V14.00,2013-02-06 07:06:00,
2013-02-06 02:07:00,1.9,-24.3,29.86,NW,326,0.0,0.0,27,0.00,,---,0.00,VWS V14.00,2013-02-06 07:07:00,
2013-02-06 02:08:00,1.9,-24.3,29.86,NW,326,0.0,0.0,27,0.00,,---,0.00,VWS V14.00,2013-02-06 07:08:00,
2013-02-06 02:11:00,1.9,-24.3,29.86,NW,326,0.0,0.0,27,0.00,,---,0.00,VWS V14.00,2013-02-06 07:11:00,
2013-02-06 02:12:00,1.8,-24.5,29.86,NW,325,0.0,0.0,27,0.00,,---,0.00,VWS V14.00,2013-02-06 07:12:00,
2013-02-06 02:13:00,1.9,-24.3,29.86,NW,326,0.0,0.0,27,0.00,,---,0.00,VWS V14.00,2013-02-06 07:13:00,
2013-02-06 02:17:00,1.8,-24.5,29.86,NW,326,0.0,0.0,27,0.00,,---,0.00,VWS V14.00,2013-02-06 07:17:00,
2013-02-06 02:18:00,1.8,-24.5,29.86,NW,325,0.0,0.0,27,0.00,,---,0.00,VWS V14.00,2013-02-06 07:18:00,
2013-02-06 02:22:00,1.6,-24.6,29.86,NW,326,0.0,0.0,27,0.00,,---,0.00,VWS V14.00,2013-02-06 07:22:00,
2013-02-06 02:23:00,1.6,-24.6,29.86,NW,326,0.0,0.0,27,0.00,,---,0.00,VWS V14.00,2013-02-06 07:23:00,
2013-02-06 02:27:00,1.6,-24.6,29.86,NW,326,0.0,0.0,27,0.00,,---,0.00,VWS V14.00,2013-02-06 07:27:00,
2013-02-06 02:28:00,1.6,-24.6,29.86,NW,326,0.0,0.0,27,0.00,,---,0.00,VWS V14.00,2013-02-06 07:28:00,
2013-02-06 02:32:00,1.6,-24.6,29.86,NW,326,0.0,0.0,27,0.00,,---,0.00,VWS V14.00,2013-02-06 07:32:00,
2013-02-06 02:33:00,1.6,-24.6,29.86,NW,326,0.0,0.0,27,0.00,,---,0.00,VWS V14.00,2013-02-06 07:33:00,
2013-02-06 02:37:00,1.6,-24.6,29.89,NW,326,0.0,0.0,27,0.00,,---,0.00,VWS V14.00,2013-02-06 07:37:00,
2013-02-06 02:38:00,1.6,-24.6,29.89,NW,326,0.0,0.0,27,0.00,,---,0.00,VWS V14.00,2013-02-06 07:38:00,
2013-02-06 02:42:00,1.6,-24.6,29.89,NW,325,0.0,0.0,27,0.00,,---,0.00,VWS V14.00,2013-02-06 07:42:00,
2013-02-06 02:43:00,1.6,-24.6,29.89,NW,326,0.0,0.0,27,0.00,,---,0.00,VWS V14.00,2013-02-06 07:43:00,
2013-02-06 02:47:00,1.6,-24.6,29.89,NW,325,0.0,0.0,27,0.00,,---,0.00,VWS V14.00,2013-02-06 07:47:00,
2013-02-06 02:48:00,1.6,-24.6,29.89,NW,326,0.0,0.0,27,0.00,,---,0.00,VWS V14.00,2013-02-06 07:48:00,
2013-02-06 02:52:00,1.6,-24.6,29.89,NW,325,0.0,0.0,27,0.00,,---,0.00,VWS V14.00,2013-02-06 07:52:00,
2013-02-06 02:53:00,1.6,-24.6,29.89,NW,325,0.0,0.0,27,0.00,,---,0.00,VWS V14.00,2013-02-06 07:53:00,
2013-02-06 02:57:00,1.6,-24.6,29.89,NW,326,0.0,0.0,27,0.00,,---,0.00,VWS V14.00,2013-02-06 07:57:00,
2013-02-06 02:58:00,1.8,-24.5,29.89,NW,326,0.0,0.0,27,0.00,,---,0.00,VWS V14.00,2013-02-06 07:58:00,
2013-02-06 03:02:00,1.9,-24.3,29.89,NW,326,0.0,0.0,27,0.00,,---,0.00,VWS V14.00,2013-02-06 08:02:00,
2013-02-06 03:03:00,1.9,-24.3,29.89,NW,326,0.0,0.0,27,0.00,,---,0.00,VWS V14.00,2013-02-06 08:03:00,
2013-02-06 03:08:00,2.3,-24.0,29.89,NW,326,0.0,0.0,27,0.00,,---,0.00,VWS V14.00,2013-02-06 08:08:00,
2013-02-06 03:09:00,2.3,-24.0,29.89,NW,326,0.0,0.0,27,0.00,,---,0.00,VWS V14.00,2013-02-06 08:09:00,
2013-02-06 03:13:00,2.5,-23.9,29.89,NW,325,0.0,0.0,27,0.00,,---,0.00,VWS V14.00,2013-02-06 08:13:00,
2013-02-06 03:14:00,2.7,-23.7,29.89,NW,326,0.0,0.0,27,0.00,,---,0.00,VWS V14.00,2013-02-06 08:14:00,
2013-02-06 03:18:00,2.7,-23.7,29.89,NW,326,0.0,0.0,27,0.00,,---,0.00,VWS V14.00,2013-02-06 08:18:00,
2013-02-06 03:19:00,2.5,-23.9,29.89,NW,326,0.0,0.0,27,0.00,,---,0.00,VWS V14.00,2013-02-06 08:19:00,
2013-02-06 03:23:00,1.9,-24.3,29.89,NW,326,0.0,0.0,27,0.00,,---,0.00,VWS V14.00,2013-02-06 08:23:00,
2013-02-06 03:24:00,1.9,-24.3,29.89,NW,326,0.0,0.0,27,0.00,,---,0.00,VWS V14.00,2013-02-06 08:24:00,
2013-02-06 03:28:00,1.9,-24.3,29.89,NW,326,0.0,0.0,27,0.00,,---,0.00,VWS V14.00,2013-02-06 08:28:00,
2013-02-06 03:29:00,1.9,-24.3,29.89,NW,326,0.0,0.0,27,0.00,,---,0.00,VWS V14.00,2013-02-06 08:29:00,
2013-02-06 03:33:00,1.6,-24.6,29.89,NW,326,0.0,0.0,27,0.00,,---,0.00,VWS V14.00,2013-02-06 08:33:00,
2013-02-06 03:34:00,1.6,-24.6,29.89,NW,326,0.0,0.0,27,0.00,,---,0.00,VWS V14.00,2013-02-06 08:34:00,
2013-02-06 03:38:00,1.6,-24.6,29.89,NW,326,0.0,0.0,27,0.00,,---,0.00,VWS V14.00,2013-02-06 08:38:00,
2013-02-06 03:39:00,1.6,-24.6,29.89,NW,326,0.0,0.0,27,0.00,,---,0.00,VWS V14.00,2013-02-06 08:39:00,
2013-02-06 03:43:00,1.4,-24.8,29.89,NW,326,0.0,0.0,27,0.00,,---,0.00,VWS V14.00,2013-02-06 08:43:00,
2013-02-06 03:44:00,1.4,-24.8,29.89,NW,326,0.0,0.0,27,0.00,,---,0.00,VWS V14.00,2013-02-06 08:44:00,
2013-02-06 03:48:00,1.4,-24.8,29.89,NW,326,0.0,0.0,27,0.00,,---,0.00,VWS V14.00,2013-02-06 08:48:00,
2013-02-06 03:49:00,1.4,-24.8,29.89,NW,326,0.0,0.0,27,0.00,,---,0.00,VWS V14.00,2013-02-06 08:49:00,
2013-02-06 03:53:00,1.2,-25.0,29.89,NW,326,0.0,0.0,27,0.00,,---,0.00,VWS V14.00,2013-02-06 08:53:00,
2013-02-06 03:54:00,1.2,-25.0,29.89,NW,326,0.0,0.0,27,0.00,,---,0.00,VWS V14.00,2013-02-06 08:54:00,
2013-02-06 03:58:00,1.2,-25.0,29.89,NW,325,0.0,0.0,27,0.00,,---,0.00,VWS V14.00,2013-02-06 08:58:00,
2013-02-06 03:59:00,1.2,-25.0,29.89,NW,326,0.0,0.0,27,0.00,,---,0.00,VWS V14.00,2013-02-06 08:59:00,
2013-02-06 04:00:00,1.0,-25.1,29.89,NW,325,0.0,0.0,27,0.00,,---,0.00,VWS V14.00,2013-02-06 09:00:00,
2013-02-06 04:04:00,0.7,-25.4,29.89,NW,326,0.0,0.0,27,0.00,,---,0.00,VWS V14.00,2013-02-06 09:04:00,
2013-02-06 04:05:00,0.7,-25.4,29.89,NW,326,0.0,0.0,27,0.00,,---,0.00,VWS V14.00,2013-02-06 09:05:00,
2013-02-06 04:09:00,0.7,-25.4,29.89,NW,326,0.0,0.0,27,0.00,,---,0.00,VWS V14.00,2013-02-06 09:09:00,
2013-02-06 04:10:00,0.7,-25.4,29.89,NW,326,0.0,0.0,27,0.00,,---,0.00,VWS V14.00,2013-02-06 09:10:00,
2013-02-06 04:14:00,0.3,-25.8,29.89,NW,326,0.0,0.0,27,0.00,,---,0.00,VWS V14.00,2013-02-06 09:14:00,
2013-02-06 04:16:00,0.0,-26.1,29.89,NW,326,0.0,0.0,27,0.00,,---,0.00,VWS V14.00,2013-02-06 09:16:00,
2013-02-06 04:19:00,-0.6,-26.5,29.89,NW,326,0.0,0.0,27,0.00,,---,0.00,VWS V14.00,2013-02-06 09:19:00,
2013-02-06 04:21:00,-0.8,-26.7,29.89,NW,326,0.0,0.0,27,0.00,,---,0.00,VWS V14.00,2013-02-06 09:21:00,
2013-02-06 04:24:00,-0.9,-26.9,29.89,NW,326,0.0,0.0,27,0.00,,---,0.00,VWS V14.00,2013-02-06 09:24:00,
2013-02-06 04:25:00,-0.8,-26.7,29.89,NW,326,0.0,0.0,27,0.00,,---,0.00,VWS V14.00,2013-02-06 09:25:00,
2013-02-06 04:26:00,-0.8,-26.7,29.89,NW,326,0.0,0.0,27,0.00,,---,0.00,VWS V14.00,2013-02-06 09:26:00,
2013-02-06 04:29:00,-0.2,-26.2,29.89,NW,326,0.0,0.0,27,0.00,,---,0.00,VWS V14.00,2013-02-06 09:29:00,
2013-02-06 04:30:00,-0.2,-26.2,29.89,NW,326,0.0,0.0,27,0.00,,---,0.00,VWS V14.00,2013-02-06 09:30:00,
2013-02-06 04:31:00,-0.2,-26.2,29.89,NW,326,0.0,0.0,27,0.00,,---,0.00,VWS V14.00,2013-02-06 09:31:00,
2013-02-06 04:34:00,0.1,-25.9,29.89,NW,326,0.0,0.0,27,0.00,,---,0.00,VWS V14.00,2013-02-06 09:34:00,
2013-02-06 04:35:00,0.0,-26.1,29.89,NW,326,0.0,0.0,27,0.00,,---,0.00,VWS V14.00,2013-02-06 09:35:00,
2013-02-06 04:36:00,0.0,-26.1,29.89,NW,326,0.0,0.0,27,0.00,,---,0.00,VWS V14.00,2013-02-06 09:36:00,
2013-02-06 04:39:00,0.0,-26.1,29.89,NW,326,0.0,0.0,27,0.00,,---,0.00,VWS V14.00,2013-02-06 09:39:00,
2013-02-06 04:40:00,0.0,-26.1,29.89,NW,326,0.0,0.0,27,0.00,,---,0.00,VWS V14.00,2013-02-06 09:40:00,
2013-02-06 04:41:00,0.0,-26.1,29.89,NW,326,0.0,0.0,27,0.00,,---,0.00,VWS V14.00,2013-02-06 09:41:00,
2013-02-06 04:44:00,-0.2,-26.2,29.89,NW,326,0.0,0.0,27,0.00,,---,0.00,VWS V14.00,2013-02-06 09:44:00,
2013-02-06 04:45:00,-0.2,-26.2,29.89,NW,326,0.0,0.0,27,0.00,,---,0.00,VWS V14.00,2013-02-06 09:45:00,
2013-02-06 04:46:00,-0.2,-26.2,29.89,NW,326,0.0,0.0,27,0.00,,---,0.00,VWS V14.00,2013-02-06 09:46:00,
2013-02-06 04:49:00,-0.2,-26.2,29.89,NW,326,0.0,0.0,27,0.00,,---,0.00,VWS V14.00,2013-02-06 09:49:00,
2013-02-06 04:50:00,-0.2,-26.2,29.89,NW,326,0.0,0.0,27,0.00,,---,0.00,VWS V14.00,2013-02-06 09:50:00,
2013-02-06 04:51:00,-0.2,-26.2,29.89,NW,325,0.0,0.0,27,0.00,,---,0.00,VWS V14.00,2013-02-06 09:51:00,
2013-02-06 04:54:00,-0.4,-26.4,29.89,NW,325,0.0,0.0,27,0.00,,---,0.00,VWS V14.00,2013-02-06 09:54:00,
2013-02-06 04:55:00,-0.6,-26.5,29.89,NW,326,0.0,0.0,27,0.00,,---,0.00,VWS V14.00,2013-02-06 09:55:00,
2013-02-06 04:56:00,-0.6,-26.5,29.89,NW,326,0.0,0.0,27,0.00,,---,0.00,VWS V14.00,2013-02-06 09:56:00,
2013-02-06 04:59:00,-0.6,-26.5,29.89,NW,325,0.0,0.0,27,0.00,,---,0.00,VWS V14.00,2013-02-06 09:59:00,
2013-02-06 05:01:00,-0.6,-26.5,29.89,NW,326,0.0,0.0,27,0.00,,---,0.00,VWS V14.00,2013-02-06 10:01:00,
2013-02-06 05:05:00,-0.6,-26.5,29.89,NW,325,0.0,0.0,27,0.00,,---,0.00,VWS V14.00,2013-02-06 10:05:00,
2013-02-06 05:06:00,-0.6,-26.5,29.92,NW,325,0.0,0.0,27,0.00,,---,0.00,VWS V14.00,2013-02-06 10:06:00,
2013-02-06 05:10:00,-0.9,-26.9,29.92,NW,326,0.0,0.0,27,0.00,,---,0.00,VWS V14.00,2013-02-06 10:10:00,
2013-02-06 05:11:00,-0.9,-26.9,29.92,NW,326,0.0,0.0,27,0.00,,---,0.00,VWS V14.00,2013-02-06 10:11:00,
2013-02-06 05:15:00,-0.4,-26.4,29.92,NW,325,0.0,0.0,27,0.00,,---,0.00,VWS V14.00,2013-02-06 10:15:00,
2013-02-06 05:16:00,-0.2,-26.2,29.92,NW,326,0.0,0.0,27,0.00,,---,0.00,VWS V14.00,2013-02-06 10:16:00,
2013-02-06 05:20:00,0.3,-25.8,29.92,NW,326,0.0,0.0,27,0.00,,---,0.00,VWS V14.00,2013-02-06 10:20:00,
2013-02-06 05:21:00,0.3,-25.8,29.92,NW,325,0.0,0.0,27,0.00,,---,0.00,VWS V14.00,2013-02-06 10:21:00,
2013-02-06 05:22:00,0.3,-25.8,29.92,NW,326,0.0,0.0,27,0.00,,---,0.00,VWS V14.00,2013-02-06 10:22:00,
2013-02-06 05:25:00,0.3,-25.8,29.92,NW,325,0.0,0.0,27,0.00,,---,0.00,VWS V14.00,2013-02-06 10:25:00,
2013-02-06 05:26:00,0.5,-25.6,29.92,NW,326,0.0,0.0,27,0.00,,---,0.00,VWS V14.00,2013-02-06 10:26:00,
2013-02-06 05:27:00,0.5,-25.6,29.92,NW,325,0.0,0.0,27,0.00,,---,0.00,VWS V14.00,2013-02-06 10:27:00,
2013-02-06 05:30:00,0.7,-25.4,29.92,NW,326,0.0,0.0,27,0.00,,---,0.00,VWS V14.00,2013-02-06 10:30:00,
2013-02-06 05:31:00,0.7,-25.4,29.92,NW,326,0.0,0.0,27,0.00,,---,0.00,VWS V14.00,2013-02-06 10:31:00,
2013-02-06 05:32:00,0.7,-25.4,29.92,NW,326,0.0,0.0,27,0.00,,---,0.00,VWS V14.00,2013-02-06 10:32:00,
2013-02-06 05:35:00,0.7,-25.4,29.92,NW,326,0.0,0.0,27,0.00,,---,0.00,VWS V14.00,2013-02-06 10:35:00,
2013-02-06 05:36:00,0.7,-25.4,29.92,NW,326,0.0,0.0,27,0.00,,---,0.00,VWS V14.00,2013-02-06 10:36:00,
2013-02-06 05:37:00,0.7,-25.4,29.92,NW,325,0.0,0.0,27,0.00,,---,0.00,VWS V14.00,2013-02-06 10:37:00,
2013-02-06 05:40:00,0.3,-25.8,29.92,NW,325,0.0,0.0,27,0.00,,---,0.00,VWS V14.00,2013-02-06 10:40:00,
2013-02-06 05:41:00,0.3,-25.8,29.92,NW,326,0.0,0.0,27,0.00,,---,0.00,VWS V14.00,2013-02-06 10:41:00,
2013-02-06 05:42:00,0.3,-25.8,29.92,NW,326,0.0,0.0,27,0.00,,---,0.00,VWS V14.00,2013-02-06 10:42:00,
2013-02-06 05:45:00,0.0,-26.1,29.92,NW,326,0.0,0.0,27,0.00,,---,0.00,VWS V14.00,2013-02-06 10:45:00,
2013-02-06 05:47:00,0.0,-26.1,29.92,NW,325,0.0,0.0,27,0.00,,---,0.00,VWS V14.00,2013-02-06 10:47:00,
2013-02-06 05:50:00,-0.6,-26.5,29.92,NW,326,0.0,0.0,27,0.00,,---,0.00,VWS V14.00,2013-02-06 10:50:00,
2013-02-06 05:52:00,-0.8,-26.7,29.92,NW,326,0.0,0.0,27,0.00,,---,0.00,VWS V14.00,2013-02-06 10:52:00,
2013-02-06 05:55:00,-1.3,-27.2,29.92,NW,326,0.0,0.0,27,0.00,,---,0.00,VWS V14.00,2013-02-06 10:55:00,
2013-02-06 05:57:00,-1.7,-27.5,29.92,NW,326,0.0,0.0,27,0.00,,---,0.00,VWS V14.00,2013-02-06 10:57:00,
2013-02-06 06:01:00,-1.8,-27.6,29.92,NW,326,0.0,0.0,27,0.00,,---,0.00,VWS V14.00,2013-02-06 11:01:00,
2013-02-06 06:02:00,-1.8,-27.6,29.92,NW,325,0.0,0.0,27,0.00,,---,0.00,VWS V14.00,2013-02-06 11:02:00,
2013-02-06 06:06:00,-1.8,-27.6,29.95,NW,326,0.0,0.0,27,0.00,,---,0.00,VWS V14.00,2013-02-06 11:06:00,
2013-02-06 06:07:00,-1.7,-27.5,29.95,NW,326,0.0,0.0,27,0.00,,---,0.00,VWS V14.00,2013-02-06 11:07:00,
2013-02-06 06:11:00,-1.1,-27.0,29.95,NW,325,0.0,0.0,27,0.00,,---,0.00,VWS V14.00,2013-02-06 11:11:00,
2013-02-06 06:12:00,-1.1,-27.0,29.95,NW,326,0.0,0.0,27,0.00,,---,0.00,VWS V14.00,2013-02-06 11:12:00,
2013-02-06 06:13:00,-0.9,-26.9,29.95,NW,326,0.0,0.0,27,0.00,,---,0.00,VWS V14.00,2013-02-06 11:13:00,
2013-02-06 06:16:00,-0.9,-26.9,29.95,NW,326,0.0,0.0,27,0.00,,---,0.00,VWS V14.00,2013-02-06 11:16:00,
2013-02-06 06:17:00,-0.9,-26.9,29.95,NW,325,0.0,0.0,27,0.00,,---,0.00,VWS V14.00,2013-02-06 11:17:00,
2013-02-06 06:18:00,-0.9,-26.9,29.95,NW,325,0.0,0.0,27,0.00,,---,0.00,VWS V14.00,2013-02-06 11:18:00,
2013-02-06 06:21:00,-0.8,-26.7,29.95,NW,326,0.0,0.0,27,0.00,,---,0.00,VWS V14.00,2013-02-06 11:21:00,
2013-02-06 06:22:00,-0.8,-26.7,29.95,NW,326,0.0,0.0,27,0.00,,---,0.00,VWS V14.00,2013-02-06 11:22:00,
2013-02-06 06:23:00,-0.6,-26.5,29.95,NW,325,0.0,0.0,27,0.00,,---,0.00,VWS V14.00,2013-02-06 11:23:00,
2013-02-06 06:26:00,-0.6,-26.5,29.95,NW,326,0.0,0.0,27,0.00,,---,0.00,VWS V14.00,2013-02-06 11:26:00,
2013-02-06 06:27:00,-0.4,-26.4,29.95,NW,326,0.0,0.0,27,0.00,,---,0.00,VWS V14.00,2013-02-06 11:27:00,
2013-02-06 06:28:00,-0.4,-26.4,29.95,NW,326,0.0,0.0,27,0.00,,---,0.00,VWS V14.00,2013-02-06 11:28:00,
2013-02-06 06:31:00,-0.4,-26.4,29.95,NW,326,0.0,0.0,27,0.00,,---,0.00,VWS V14.00,2013-02-06 11:31:00,
2013-02-06 06:32:00,-0.2,-26.2,29.95,NW,326,0.0,0.0,27,0.00,,---,0.00,VWS V14.00,2013-02-06 11:32:00,
2013-02-06 06:33:00,-0.2,-26.2,29.95,NW,325,0.0,0.0,27,0.00,,---,0.00,VWS V14.00,2013-02-06 11:33:00,
2013-02-06 06:36:00,-0.2,-26.2,29.95,NW,326,0.0,0.0,27,0.00,,---,0.00,VWS V14.00,2013-02-06 11:36:00,
2013-02-06 06:37:00,-0.2,-26.2,29.95,NW,326,0.0,0.0,27,0.00,,---,0.00,VWS V14.00,2013-02-06 11:37:00,
2013-02-06 06:38:00,0.0,-26.1,29.95,NW,325,0.0,0.0,27,0.00,,---,0.00,VWS V14.00,2013-02-06 11:38:00,
2013-02-06 06:42:00,0.0,-26.1,29.95,NW,326,0.0,0.0,27,0.00,,---,0.00,VWS V14.00,2013-02-06 11:42:00,
2013-02-06 06:43:00,0.0,-26.1,29.95,NW,325,0.0,0.0,27,0.00,,---,0.00,VWS V14.00,2013-02-06 11:43:00,
2013-02-06 06:47:00,0.3,-25.8,29.95,NW,326,0.0,0.0,27,0.00,,---,0.00,VWS V14.00,2013-02-06 11:47:00,
2013-02-06 06:48:00,0.3,-25.8,29.95,NW,326,0.0,0.0,27,0.00,,---,0.00,VWS V14.00,2013-02-06 11:48:00,
2013-02-06 06:52:00,0.0,-26.1,29.95,NW,325,0.0,0.0,27,0.00,,---,0.00,VWS V14.00,2013-02-06 11:52:00,
2013-02-06 06:53:00,0.0,-26.1,29.95,NW,326,0.0,0.0,27,0.00,,---,0.00,VWS V14.00,2013-02-06 11:53:00,
2013-02-06 06:54:00,0.0,-26.1,29.95,NW,326,0.0,0.0,27,0.00,,---,0.00,VWS V14.00,2013-02-06 11:54:00,
2013-02-06 06:57:00,0.0,-26.1,29.95,NW,326,0.0,0.0,27,0.00,,---,0.00,VWS V14.00,2013-02-06 11:57:00,
2013-02-06 06:58:00,0.0,-26.1,29.95,NW,326,0.0,0.0,27,0.00,,---,0.00,VWS V14.00,2013-02-06 11:58:00,
2013-02-06 06:59:00,0.0,-26.1,29.95,NW,326,0.0,0.0,27,0.00,,---,0.00,VWS V14.00,2013-02-06 11:59:00,
2013-02-06 07:02:00,0.3,-25.8,29.95,NW,326,0.0,0.0,27,0.00,,---,0.00,VWS V14.00,2013-02-06 12:02:00,
2013-02-06 07:03:00,0.3,-25.8,29.95,NW,325,0.0,0.0,27,0.00,,---,0.00,VWS V14.00,2013-02-06 12:03:00,
2013-02-06 07:04:00,0.3,-25.8,29.95,NW,326,0.0,0.0,27,0.00,,---,0.00,VWS V14.00,2013-02-06 12:04:00,
2013-02-06 07:07:00,0.3,-25.8,29.95,NW,325,0.0,0.0,27,0.00,,---,0.00,VWS V14.00,2013-02-06 12:07:00,
2013-02-06 07:08:00,0.3,-25.8,29.95,NW,326,0.0,0.0,27,0.00,,---,0.00,VWS V14.00,2013-02-06 12:08:00,
2013-02-06 07:09:00,0.3,-25.8,29.95,NW,326,0.0,0.0,27,0.00,,---,0.00,VWS V14.00,2013-02-06 12:09:00,
2013-02-06 07:12:00,0.5,-25.6,29.95,NW,326,0.0,0.0,27,0.00,,---,0.00,VWS V14.00,2013-02-06 12:12:00,
2013-02-06 07:13:00,0.5,-25.6,29.95,NW,326,0.0,0.0,27,0.00,,---,0.00,VWS V14.00,2013-02-06 12:13:00,
2013-02-06 07:14:00,0.5,-25.6,29.95,NW,326,0.0,0.0,27,0.00,,---,0.00,VWS V14.00,2013-02-06 12:14:00,
2013-02-06 07:17:00,0.5,-25.6,29.95,NW,326,0.0,0.0,27,0.00,,---,0.00,VWS V14.00,2013-02-06 12:17:00,
2013-02-06 07:18:00,0.5,-25.6,29.95,NW,326,0.0,0.0,27,0.00,,---,0.00,VWS V14.00,2013-02-06 12:18:00,
2013-02-06 07:19:00,0.5,-25.6,29.95,NW,325,0.0,0.0,27,0.00,,---,0.00,VWS V14.00,2013-02-06 12:19:00,
2013-02-06 07:22:00,0.5,-25.6,29.95,NW,326,0.0,0.0,27,0.00,,---,0.00,VWS V14.00,2013-02-06 12:22:00,
2013-02-06 07:23:00,0.5,-25.6,29.95,NW,325,0.0,0.0,27,0.00,,---,0.00,VWS V14.00,2013-02-06 12:23:00,
2013-02-06 07:24:00,0.5,-25.6,29.95,NW,326,0.0,0.0,27,0.00,,---,0.00,VWS V14.00,2013-02-06 12:24:00,
2013-02-06 07:27:00,0.5,-25.6,29.95,NW,326,0.0,0.0,27,0.00,,---,0.00,VWS V14.00,2013-02-06 12:27:00,
2013-02-06 07:28:00,0.5,-25.6,29.95,NW,326,0.0,0.0,27,0.00,,---,0.00,VWS V14.00,2013-02-06 12:28:00,
2013-02-06 07:29:00,0.3,-25.8,29.95,NW,326,0.0,0.0,27,0.00,,---,0.00,VWS V14.00,2013-02-06 12:29:00,
2013-02-06 07:33:00,0.3,-25.8,29.95,NW,326,0.0,0.0,27,0.00,,---,0.00,VWS V14.00,2013-02-06 12:33:00,
2013-02-06 07:34:00,0.3,-25.8,29.95,NW,326,0.0,0.0,27,0.00,,---,0.00,VWS V14.00,2013-02-06 12:34:00,
2013-02-06 07:38:00,0.7,-25.4,29.95,NW,326,0.0,0.0,27,0.00,,---,0.00,VWS V14.00,2013-02-06 12:38:00,
2013-02-06 07:39:00,0.7,-25.4,29.95,NW,326,0.0,0.0,27,0.00,,---,0.00,VWS V14.00,2013-02-06 12:39:00,
2013-02-06 07:43:00,1.2,-25.0,29.95,NW,326,0.0,0.0,27,0.00,,---,0.00,VWS V14.00,2013-02-06 12:43:00,
2013-02-06 07:44:00,1.2,-25.0,29.95,NW,325,0.0,0.0,27,0.00,,---,0.00,VWS V14.00,2013-02-06 12:44:00,
2013-02-06 07:48:00,1.6,-24.6,29.95,NW,326,0.0,0.0,27,0.00,,---,0.00,VWS V14.00,2013-02-06 12:48:00,
2013-02-06 07:49:00,1.8,-24.5,29.95,NW,326,0.0,0.0,27,0.00,,---,0.00,VWS V14.00,2013-02-06 12:49:00,
2013-02-06 07:53:00,1.6,-24.6,29.95,NW,326,0.0,0.0,27,0.00,,---,0.00,VWS V14.00,2013-02-06 12:53:00,
2013-02-06 07:54:00,1.6,-24.6,29.95,NW,325,0.0,0.0,27,0.00,,---,0.00,VWS V14.00,2013-02-06 12:54:00,
2013-02-06 07:58:00,1.6,-24.6,29.95,NW,326,0.0,0.0,27,0.00,,---,0.00,VWS V14.00,2013-02-06 12:58:00,
2013-02-06 07:59:00,1.4,-24.8,29.95,NW,325,0.0,0.0,27,0.00,,---,0.00,VWS V14.00,2013-02-06 12:59:00,
2013-02-06 08:00:00,1.4,-24.8,29.95,NW,326,0.0,0.0,27,0.00,,---,0.00,VWS V14.00,2013-02-06 13:00:00,
2013-02-06 08:03:00,1.4,-24.8,29.95,NW,326,0.0,0.0,27,0.00,,---,0.00,VWS V14.00,2013-02-06 13:03:00,
2013-02-06 08:04:00,1.6,-24.6,29.95,NW,326,0.0,0.0,27,0.00,,---,0.00,VWS V14.00,2013-02-06 13:04:00,
2013-02-06 08:05:00,1.4,-24.8,29.95,NW,325,0.0,0.0,27,0.00,,---,0.00,VWS V14.00,2013-02-06 13:05:00,
2013-02-06 08:08:00,1.0,-25.1,29.95,NW,326,0.0,0.0,27,0.00,,---,0.00,VWS V14.00,2013-02-06 13:08:00,
2013-02-06 08:09:00,1.0,-25.1,29.95,NW,326,0.0,0.0,27,0.00,,---,0.00,VWS V14.00,2013-02-06 13:09:00,
2013-02-06 08:10:00,1.0,-25.1,29.95,NW,325,0.0,0.0,27,0.00,,---,0.00,VWS V14.00,2013-02-06 13:10:00,
2013-02-06 08:14:00,1.2,-25.0,29.95,NW,325,0.0,0.0,27,0.00,,---,0.00,VWS V14.00,2013-02-06 13:14:00,
2013-02-06 08:15:00,1.2,-25.0,29.95,NW,326,0.0,0.0,27,0.00,,---,0.00,VWS V14.00,2013-02-06 13:15:00,
2013-02-06 08:19:00,1.9,-24.3,29.95,NW,326,0.0,0.0,27,0.00,,---,0.00,VWS V14.00,2013-02-06 13:19:00,
2013-02-06 08:20:00,1.9,-24.3,29.95,NW,326,0.0,0.0,27,0.00,,---,0.00,VWS V14.00,2013-02-06 13:20:00,
2013-02-06 08:24:00,2.3,-24.0,29.95,NW,326,0.0,0.0,27,0.00,,---,0.00,VWS V14.00,2013-02-06 13:24:00,
2013-02-06 08:25:00,2.5,-23.9,29.95,NW,326,0.0,0.0,27,0.00,,---,0.00,VWS V14.00,2013-02-06 13:25:00,
2013-02-06 08:29:00,2.7,-23.7,29.95,NW,325,0.0,0.0,27,0.00,,---,0.00,VWS V14.00,2013-02-06 13:29:00,
2013-02-06 08:30:00,2.8,-23.5,29.95,NW,326,0.0,0.0,27,0.00,,---,0.00,VWS V14.00,2013-02-06 13:30:00,
2013-02-06 08:34:00,2.5,-23.9,29.95,NW,325,0.0,0.0,27,0.00,,---,0.00,VWS V14.00,2013-02-06 13:34:00,
2013-02-06 08:35:00,2.5,-23.9,29.95,NW,326,0.0,0.0,27,0.00,,---,0.00,VWS V14.00,2013-02-06 13:35:00,
2013-02-06 08:39:00,2.5,-23.9,29.95,NW,326,0.0,0.0,27,0.00,,---,0.00,VWS V14.00,2013-02-06 13:39:00,
2013-02-06 08:40:00,2.5,-23.9,29.95,NW,326,0.0,0.0,27,0.00,,---,0.00,VWS V14.00,2013-02-06 13:40:00,
2013-02-06 08:44:00,2.8,-23.5,29.95,NW,326,0.0,0.0,27,0.00,,---,0.00,VWS V14.00,2013-02-06 13:44:00,
2013-02-06 08:45:00,2.8,-23.5,29.95,NW,326,0.0,0.0,27,0.00,,---,0.00,VWS V14.00,2013-02-06 13:45:00,
2013-02-06 08:46:00,3.0,-23.4,29.95,NW,325,0.0,0.0,27,0.00,,---,0.00,VWS V14.00,2013-02-06 13:46:00,
2013-02-06 08:49:00,3.4,-23.1,29.95,NW,326,0.0,0.0,27,0.00,,---,0.00,VWS V14.00,2013-02-06 13:49:00,
2013-02-06 08:50:00,3.4,-23.1,29.95,NW,325,0.0,0.0,27,0.00,,---,0.00,VWS V14.00,2013-02-06 13:50:00,
2013-02-06 08:51:00,3.4,-23.1,29.95,NW,326,0.0,0.0,27,0.00,,---,0.00,VWS V14.00,2013-02-06 13:51:00,
2013-02-06 08:55:00,3.2,-23.2,29.95,NW,326,0.0,0.0,27,0.00,,---,0.00,VWS V14.00,2013-02-06 13:55:00,
2013-02-06 08:56:00,3.4,-23.1,29.95,NW,325,0.0,0.0,27,0.00,,---,0.00,VWS V14.00,2013-02-06 13:56:00,
2013-02-06 09:00:00,3.7,-22.8,29.95,NW,325,0.0,0.0,27,0.00,,---,0.00,VWS V14.00,2013-02-06 14:00:00,
2013-02-06 09:01:00,3.9,-22.6,29.95,NW,325,0.0,0.0,27,0.00,,---,0.00,VWS V14.00,2013-02-06 14:01:00,
2013-02-06 09:05:00,4.1,-22.5,29.95,NW,326,0.0,0.0,27,0.00,,---,0.00,VWS V14.00,2013-02-06 14:05:00,
2013-02-06 09:06:00,4.3,-22.3,29.95,NW,326,0.0,0.0,27,0.00,,---,0.00,VWS V14.00,2013-02-06 14:06:00,
2013-02-06 09:10:00,4.5,-22.1,29.95,NW,326,0.0,0.0,27,0.00,,---,0.00,VWS V14.00,2013-02-06 14:10:00,
2013-02-06 09:11:00,4.5,-22.1,29.95,NW,325,0.0,0.0,27,0.00,,---,0.00,VWS V14.00,2013-02-06 14:11:00,
2013-02-06 09:15:00,4.5,-22.1,29.95,NW,325,0.0,0.0,27,0.00,,---,0.00,VWS V14.00,2013-02-06 14:15:00,
2013-02-06 09:16:00,4.6,-22.0,29.95,NW,326,0.0,0.0,27,0.00,,---,0.00,VWS V14.00,2013-02-06 14:16:00,
2013-02-06 09:17:00,4.6,-22.0,29.95,NW,326,0.0,0.0,27,0.00,,---,0.00,VWS V14.00,2013-02-06 14:17:00,
2013-02-06 09:20:00,4.8,-21.8,29.95,NW,326,0.0,0.0,27,0.00,,---,0.00,VWS V14.00,2013-02-06 14:20:00,
2013-02-06 09:21:00,4.8,-21.8,29.95,NW,326,0.0,0.0,27,0.00,,---,0.00,VWS V14.00,2013-02-06 14:21:00,
2013-02-06 09:22:00,5.0,-21.7,29.95,NW,326,0.0,0.0,27,0.00,,---,0.00,VWS V14.00,2013-02-06 14:22:00,
2013-02-06 09:25:00,5.4,-21.4,29.95,NW,325,0.0,0.0,27,0.00,,---,0.00,VWS V14.00,2013-02-06 14:25:00,
2013-02-06 09:26:00,5.4,-21.4,29.95,NW,326,0.0,0.0,27,0.00,,---,0.00,VWS V14.00,2013-02-06 14:26:00,
2013-02-06 09:27:00,5.4,-21.4,29.95,NW,326,0.0,0.0,27,0.00,,---,0.00,VWS V14.00,2013-02-06 14:27:00,
2013-02-06 09:30:00,5.7,-21.0,29.95,NW,326,0.0,0.0,27,0.00,,---,0.00,VWS V14.00,2013-02-06 14:30:00,
2013-02-06 09:31:00,5.9,-20.9,29.95,NW,325,0.0,0.0,27,0.00,,---,0.00,VWS V14.00,2013-02-06 14:31:00,
2013-02-06 09:32:00,5.9,-20.9,29.95,NW,326,0.0,0.0,27,0.00,,---,0.00,VWS V14.00,2013-02-06 14:32:00,
2013-02-06 09:35:00,6.1,-20.7,29.95,NW,326,0.0,0.0,27,0.00,,---,0.00,VWS V14.00,2013-02-06 14:35:00,
2013-02-06 09:36:00,6.1,-20.7,29.95,NW,326,0.0,0.0,27,0.00,,---,0.00,VWS V14.00,2013-02-06 14:36:00,
2013-02-06 09:37:00,6.3,-20.6,29.95,NW,325,0.0,0.0,27,0.00,,---,0.00,VWS V14.00,2013-02-06 14:37:00,
2013-02-06 09:40:00,6.4,-20.4,29.95,NW,325,0.0,0.0,27,0.00,,---,0.00,VWS V14.00,2013-02-06 14:40:00,
2013-02-06 09:41:00,6.4,-20.4,29.95,NW,326,0.0,0.0,27,0.00,,---,0.00,VWS V14.00,2013-02-06 14:41:00,
2013-02-06 09:42:00,6.4,-20.4,29.95,NW,326,0.0,0.0,27,0.00,,---,0.00,VWS V14.00,2013-02-06 14:42:00,
2013-02-06 09:46:00,6.6,-20.2,29.95,NW,326,0.0,0.0,27,0.00,,---,0.00,VWS V14.00,2013-02-06 14:46:00,
2013-02-06 09:47:00,6.6,-20.2,29.95,NW,326,0.0,0.0,27,0.00,,---,0.00,VWS V14.00,2013-02-06 14:47:00,
2013-02-06 09:51:00,7.0,-19.9,29.95,NW,326,0.0,0.0,27,0.00,,---,0.00,VWS V14.00,2013-02-06 14:51:00,
2013-02-06 09:52:00,7.2,-19.8,29.95,NW,325,0.0,0.0,27,0.00,,---,0.00,VWS V14.00,2013-02-06 14:52:00,
2013-02-06 09:56:00,7.5,-19.5,29.95,NW,326,0.0,0.0,27,0.00,,---,0.00,VWS V14.00,2013-02-06 14:56:00,
2013-02-06 09:57:00,7.5,-19.5,29.95,NW,326,0.0,0.0,27,0.00,,---,0.00,VWS V14.00,2013-02-06 14:57:00,
2013-02-06 10:01:00,8.1,-19.0,29.95,NW,326,0.0,0.0,27,0.00,,---,0.00,VWS V14.00,2013-02-06 15:01:00,
2013-02-06 10:02:00,8.4,-18.7,29.95,NW,326,0.0,0.0,27,0.00,,---,0.00,VWS V14.00,2013-02-06 15:02:00,
2013-02-06 10:06:00,9.1,-18.0,29.95,NW,326,0.0,0.0,27,0.00,,---,0.00,VWS V14.00,2013-02-06 15:06:00,
2013-02-06 10:07:00,9.1,-18.0,29.95,NW,326,0.0,0.0,27,0.00,,---,0.00,VWS V14.00,2013-02-06 15:07:00,
2013-02-06 10:11:00,9.3,-17.9,29.95,NW,326,0.0,0.0,27,0.00,,---,0.00,VWS V14.00,2013-02-06 15:11:00,
2013-02-06 10:12:00,9.3,-17.9,29.95,NW,326,0.0,0.0,27,0.00,,---,0.00,VWS V14.00,2013-02-06 15:12:00,
2013-02-06 10:16:00,9.5,-17.7,29.95,NW,326,0.0,0.0,27,0.00,,---,0.00,VWS V14.00,2013-02-06 15:16:00,
2013-02-06 10:17:00,9.5,-17.7,29.95,NW,326,0.0,0.0,27,0.00,,---,0.00,VWS V14.00,2013-02-06 15:17:00,
2013-02-06 10:21:00,9.7,-17.6,29.98,NW,326,0.0,0.0,27,0.00,,---,0.00,VWS V14.00,2013-02-06 15:21:00,
2013-02-06 10:22:00,9.7,-17.6,29.98,NW,326,0.0,0.0,27,0.00,,---,0.00,VWS V14.00,2013-02-06 15:22:00,
2013-02-06 10:26:00,10.2,-17.1,29.98,NW,326,0.0,0.0,27,0.00,,---,0.00,VWS V14.00,2013-02-06 15:26:00,
2013-02-06 10:27:00,10.2,-17.1,29.98,NW,326,0.0,0.0,27,0.00,,---,0.00,VWS V14.00,2013-02-06 15:27:00,
2013-02-06 10:28:00,10.2,-17.1,29.98,NW,326,0.0,0.0,27,0.00,,---,0.00,VWS V14.00,2013-02-06 15:28:00,
2013-02-06 10:31:00,10.2,-17.1,29.98,NW,326,0.0,0.0,27,0.00,,---,0.00,VWS V14.00,2013-02-06 15:31:00,
2013-02-06 10:32:00,10.2,-17.1,29.98,NW,326,0.0,0.0,27,0.00,,---,0.00,VWS V14.00,2013-02-06 15:32:00,
2013-02-06 10:33:00,10.2,-17.1,29.98,NW,326,0.0,0.0,27,0.00,,---,0.00,VWS V14.00,2013-02-06 15:33:00,
2013-02-06 10:37:00,10.4,-17.0,29.98,NW,326,0.0,0.0,27,0.00,,---,0.00,VWS V14.00,2013-02-06 15:37:00,
2013-02-06 10:38:00,10.8,-16.6,29.98,NW,326,0.0,0.0,27,0.00,,---,0.00,VWS V14.00,2013-02-06 15:38:00,
2013-02-06 10:42:00,11.1,-16.3,29.98,NW,326,0.0,0.0,27,0.00,,---,0.00,VWS V14.00,2013-02-06 15:42:00,
2013-02-06 10:43:00,11.1,-16.3,29.98,NW,326,0.0,0.0,27,0.00,,---,0.00,VWS V14.00,2013-02-06 15:43:00,
2013-02-06 10:47:00,11.5,-16.0,29.98,NW,325,0.0,0.0,27,0.00,,---,0.00,VWS V14.00,2013-02-06 15:47:00,
2013-02-06 10:48:00,11.7,-15.9,29.98,NW,326,0.0,3.4,27,0.00,,---,0.00,VWS V14.00,2013-02-06 15:48:00,
2013-02-06 10:52:00,12.0,-15.5,29.95,NW,326,3.4,3.4,27,0.00,,---,0.00,VWS V14.00,2013-02-06 15:52:00,
2013-02-06 10:53:00,12.0,-15.5,29.95,NW,326,0.0,3.4,27,0.00,,---,0.00,VWS V14.00,2013-02-06 15:53:00,
2013-02-06 10:57:00,12.6,-15.1,29.95,NW,325,5.4,5.4,27,0.00,,---,0.00,VWS V14.00,2013-02-06 15:57:00,
2013-02-06 10:58:00,12.6,-15.1,29.95,NW,326,0.0,5.4,27,0.00,,---,0.00,VWS V14.00,2013-02-06 15:58:00,
2013-02-06 11:02:00,12.2,-15.4,29.95,NW,326,4.0,4.0,27,0.00,,---,0.00,VWS V14.00,2013-02-06 16:02:00,
2013-02-06 11:03:00,12.0,-15.5,29.95,NW,326,5.4,6.0,27,0.00,,---,0.00,VWS V14.00,2013-02-06 16:03:00,
2013-02-06 11:07:00,12.2,-15.4,29.98,NW,326,0.0,4.0,27,0.00,,---,0.00,VWS V14.00,2013-02-06 16:07:00,
2013-02-06 11:08:00,12.4,-15.2,29.98,NW,326,0.0,4.0,27,0.00,,---,0.00,VWS V14.00,2013-02-06 16:08:00,
2013-02-06 11:12:00,12.7,-14.9,29.98,NW,326,0.0,3.4,27,0.00,,---,0.00,VWS V14.00,2013-02-06 16:12:00,
2013-02-06 11:13:00,12.7,-14.9,29.98,NW,326,0.0,3.4,27,0.00,,---,0.00,VWS V14.00,2013-02-06 16:13:00,
2013-02-06 11:14:00,12.9,-14.8,29.98,NW,326,0.0,0.0,27,0.00,,---,0.00,VWS V14.00,2013-02-06 16:14:00,
2013-02-06 11:17:00,13.3,-14.4,29.98,NW,325,0.0,0.0,27,0.00,,---,0.00,VWS V14.00,2013-02-06 16:17:00,
2013-02-06 11:18:00,13.5,-14.3,29.98,NW,326,0.0,0.0,27,0.00,,---,0.00,VWS V14.00,2013-02-06 16:18:00,
2013-02-06 11:19:00,13.5,-14.3,29.98,NW,326,0.0,0.0,27,0.00,,---,0.00,VWS V14.00,2013-02-06 16:19:00,
2013-02-06 11:22:00,13.8,-14.0,29.98,NW,326,0.0,5.4,27,0.00,,---,0.00,VWS V14.00,2013-02-06 16:22:00,
2013-02-06 11:23:00,13.8,-14.0,29.98,NW,326,4.0,4.0,27,0.00,,---,0.00,VWS V14.00,2013-02-06 16:23:00,
2013-02-06 11:24:00,13.6,-14.1,29.98,NW,326,4.7,4.7,27,0.00,,---,0.00,VWS V14.00,2013-02-06 16:24:00,
2013-02-06 11:27:00,13.8,-14.0,29.98,NW,326,3.4,6.0,27,0.00,,---,0.00,VWS V14.00,2013-02-06 16:27:00,
2013-02-06 11:28:00,13.8,-14.0,29.98,NW,326,4.7,6.0,27,0.00,,---,0.00,VWS V14.00,2013-02-06 16:28:00,
2013-02-06 11:29:00,13.8,-14.0,29.98,NW,326,3.4,3.4,27,0.00,,---,0.00,VWS V14.00,2013-02-06 16:29:00,
2013-02-06 11:33:00,13.6,-14.1,29.98,NW,326,3.4,3.4,27,0.00,,---,0.00,VWS V14.00,2013-02-06 16:33:00,
2013-02-06 11:34:00,13.6,-14.1,29.98,NW,326,4.7,5.4,27,0.00,,---,0.00,VWS V14.00,2013-02-06 16:34:00,
2013-02-06 11:38:00,13.8,-14.0,29.98,NW,326,4.0,4.0,27,0.00,,---,0.00,VWS V14.00,2013-02-06 16:38:00,
2013-02-06 11:39:00,13.8,-14.0,29.98,NW,326,5.4,5.4,27,0.00,,---,0.00,VWS V14.00,2013-02-06 16:39:00,
2013-02-06 11:43:00,13.8,-12.6,29.98,NW,326,3.4,3.4,29,0.00,,---,0.00,VWS V14.00,2013-02-06 16:43:00,
2013-02-06 11:44:00,14.0,-12.4,29.98,NW,326,4.0,4.0,29,0.00,,---,0.00,VWS V14.00,2013-02-06 16:44:00,
2013-02-06 11:48:00,14.4,-10.7,29.98,NW,326,4.0,4.7,31,0.00,,---,0.00,VWS V14.00,2013-02-06 16:48:00,
2013-02-06 11:49:00,14.4,-10.7,29.98,NW,326,5.4,5.4,31,0.00,,---,0.00,VWS V14.00,2013-02-06 16:49:00,
2013-02-06 11:53:00,14.5,-10.6,29.98,NW,326,0.0,4.7,31,0.00,,---,0.00,VWS V14.00,2013-02-06 16:53:00,
2013-02-06 11:54:00,14.7,-10.4,29.98,NW,326,0.0,0.0,31,0.00,,---,0.00,VWS V14.00,2013-02-06 16:54:00,
2013-02-06 11:58:00,15.3,-8.1,29.98,NW,326,4.0,4.7,34,0.00,,---,0.00,VWS V14.00,2013-02-06 16:58:00,
2013-02-06 11:59:00,15.3,-8.1,29.98,NW,326,0.0,3.4,34,0.00,,---,0.00,VWS V14.00,2013-02-06 16:59:00,
2013-02-06 12:03:00,15.4,-9.8,29.98,NW,326,3.4,3.4,31,0.00,,---,0.00,VWS V14.00,2013-02-06 17:03:00,
2013-02-06 12:04:00,15.3,-11.3,29.98,NW,326,6.0,6.0,29,0.00,,---,0.00,VWS V14.00,2013-02-06 17:04:00,
2013-02-06 12:08:00,15.6,-9.6,29.98,NW,326,0.0,0.0,31,0.00,,---,0.00,VWS V14.00,2013-02-06 17:08:00,
2013-02-06 12:09:00,15.6,-9.6,29.98,NW,326,3.4,3.4,31,0.00,,---,0.00,VWS V14.00,2013-02-06 17:09:00,
2013-02-06 12:13:00,15.8,-13.0,29.98,NW,326,0.0,0.0,26,0.00,,---,0.00,VWS V14.00,2013-02-06 17:13:00,
2013-02-06 12:14:00,15.8,-13.0,29.98,NW,326,0.0,0.0,26,0.00,,---,0.00,VWS V14.00,2013-02-06 17:14:00,
2013-02-06 12:19:00,16.9,-10.6,29.98,NW,326,4.0,4.0,28,0.00,,---,0.00,VWS V14.00,2013-02-06 17:19:00,
2013-02-06 12:20:00,16.9,-10.6,29.98,NW,326,3.4,3.4,28,0.00,,---,0.00,VWS V14.00,2013-02-06 17:20:00,
2013-02-06 12:24:00,17.1,-10.4,29.98,NW,326,5.4,5.4,28,0.00,,---,0.00,VWS V14.00,2013-02-06 17:24:00,
2013-02-06 12:25:00,16.9,-10.6,29.98,NW,326,0.0,5.4,28,0.00,,---,0.00,VWS V14.00,2013-02-06 17:25:00,
2013-02-06 12:29:00,16.7,-12.2,29.98,NW,326,5.4,5.4,26,0.00,,---,0.00,VWS V14.00,2013-02-06 17:29:00,
2013-02-06 12:30:00,16.5,-12.4,29.98,NW,326,3.4,5.4,26,0.00,,---,0.00,VWS V14.00,2013-02-06 17:30:00,
2013-02-06 12:34:00,16.9,-12.1,29.98,NW,326,0.0,0.0,26,0.00,,---,0.00,VWS V14.00,2013-02-06 17:34:00,
2013-02-06 12:35:00,16.9,-12.1,29.98,NW,326,4.7,4.7,26,0.00,,---,0.00,VWS V14.00,2013-02-06 17:35:00,
2013-02-06 12:39:00,16.7,-12.2,29.98,NW,326,3.4,4.0,26,0.00,,---,0.00,VWS V14.00,2013-02-06 17:39:00,
2013-02-06 12:40:00,16.7,-12.2,29.98,NW,326,4.0,4.0,26,0.00,,---,0.00,VWS V14.00,2013-02-06 17:40:00,
2013-02-06 12:44:00,17.4,-11.6,29.98,NW,326,4.0,4.7,26,0.00,,---,0.00,VWS V14.00,2013-02-06 17:44:00,
2013-02-06 12:45:00,17.4,-11.6,29.98,NW,326,4.0,6.0,26,0.00,,---,0.00,VWS V14.00,2013-02-06 17:45:00,
2013-02-06 12:49:00,18.5,-11.4,29.98,NW,326,3.4,4.0,25,0.00,,---,0.00,VWS V14.00,2013-02-06 17:49:00,
2013-02-06 12:50:00,18.7,-11.3,29.98,NW,326,4.0,4.0,25,0.00,,---,0.00,VWS V14.00,2013-02-06 17:50:00,
2013-02-06 12:51:00,18.7,-11.3,29.98,NW,326,5.4,8.1,25,0.00,,---,0.00,VWS V14.00,2013-02-06 17:51:00,
2013-02-06 12:54:00,19.2,-10.8,29.98,NW,326,0.0,0.0,25,0.00,,---,0.00,VWS V14.00,2013-02-06 17:54:00,
2013-02-06 12:55:00,19.4,-10.7,29.98,NW,326,4.7,7.4,25,0.00,,---,0.00,VWS V14.00,2013-02-06 17:55:00,
2013-02-06 12:56:00,19.4,-10.7,29.98,NW,326,4.0,7.4,25,0.00,,---,0.00,VWS V14.00,2013-02-06 17:56:00,
2013-02-06 12:59:00,19.6,-10.5,29.98,NW,326,4.0,4.7,25,0.00,,---,0.00,VWS V14.00,2013-02-06 17:59:00,
2013-02-06 13:00:00,19.6,-10.5,29.98,NW,326,4.7,5.4,25,0.00,,---,0.00,VWS V14.00,2013-02-06 18:00:00,
2013-02-06 13:01:00,19.8,-10.4,29.98,NW,326,4.0,5.4,25,0.00,,---,0.00,VWS V14.00,2013-02-06 18:01:00,
2013-02-06 13:04:00,20.1,-10.1,29.98,NW,326,0.0,0.0,25,0.00,,---,0.00,VWS V14.00,2013-02-06 18:04:00,
2013-02-06 13:05:00,20.1,-10.1,29.98,NW,326,0.0,0.0,25,0.00,,---,0.00,VWS V14.00,2013-02-06 18:05:00,
2013-02-06 13:06:00,20.1,-10.1,29.98,NW,326,0.0,0.0,25,0.00,,---,0.00,VWS V14.00,2013-02-06 18:06:00,
2013-02-06 13:10:00,20.5,-9.7,29.98,NW,326,4.0,4.0,25,0.00,,---,0.00,VWS V14.00,2013-02-06 18:10:00,
2013-02-06 13:11:00,20.5,-9.7,29.98,NW,326,5.4,5.4,25,0.00,,---,0.00,VWS V14.00,2013-02-06 18:11:00,
2013-02-06 13:15:00,20.1,-10.1,29.98,NW,326,4.0,4.7,25,0.00,,---,0.00,VWS V14.00,2013-02-06 18:15:00,
2013-02-06 13:16:00,20.3,-9.9,29.98,NW,326,6.0,6.0,25,0.00,,---,0.00,VWS V14.00,2013-02-06 18:16:00,
2013-02-06 13:20:00,20.5,-9.7,29.98,NW,326,0.0,0.0,25,0.00,,---,0.00,VWS V14.00,2013-02-06 18:20:00,
2013-02-06 13:21:00,20.7,-9.6,29.98,NW,326,4.0,4.0,25,0.00,,---,0.00,VWS V14.00,2013-02-06 18:21:00,
2013-02-06 13:25:00,20.3,-9.9,29.98,NW,326,0.0,0.0,25,0.00,,---,0.00,VWS V14.00,2013-02-06 18:25:00,
2013-02-06 13:26:00,20.3,-9.9,29.98,NW,326,3.4,3.4,25,0.00,,---,0.00,VWS V14.00,2013-02-06 18:26:00,
2013-02-06 13:30:00,20.1,-10.1,29.98,NW,326,3.4,5.4,25,0.00,,---,0.00,VWS V14.00,2013-02-06 18:30:00,
2013-02-06 13:31:00,20.3,-9.9,29.98,NW,326,0.0,5.4,25,0.00,,---,0.00,VWS V14.00,2013-02-06 18:31:00,
2013-02-06 13:35:00,20.3,-9.9,29.98,NW,326,0.0,4.0,25,0.00,,---,0.00,VWS V14.00,2013-02-06 18:35:00,
2013-02-06 13:36:00,20.3,-9.9,29.98,NW,326,4.0,4.0,25,0.00,,---,0.00,VWS V14.00,2013-02-06 18:36:00,
2013-02-06 13:37:00,20.3,-9.9,29.98,NW,326,0.0,4.7,25,0.00,,---,0.00,VWS V14.00,2013-02-06 18:37:00,
2013-02-06 13:40:00,20.1,-10.1,29.98,NW,326,0.0,0.0,25,0.00,,---,0.00,VWS V14.00,2013-02-06 18:40:00,
2013-02-06 13:41:00,20.3,-9.9,29.98,NW,326,4.7,4.7,25,0.00,,---,0.00,VWS V14.00,2013-02-06 18:41:00,
2013-02-06 13:42:00,20.1,-10.1,29.98,NW,326,5.4,5.4,25,0.00,,---,0.00,VWS V14.00,2013-02-06 18:42:00,
2013-02-06 13:45:00,20.1,-10.1,29.98,NW,326,0.0,5.4,25,0.00,,---,0.00,VWS V14.00,2013-02-06 18:45:00,
2013-02-06 13:46:00,20.1,-10.1,29.98,NW,326,5.4,5.4,25,0.00,,---,0.00,VWS V14.00,2013-02-06 18:46:00,
2013-02-06 13:47:00,19.9,-10.2,29.98,NW,326,4.0,5.4,25,0.00,,---,0.00,VWS V14.00,2013-02-06 18:47:00,
2013-02-06 13:50:00,19.9,-10.2,29.98,NW,326,0.0,0.0,25,0.00,,---,0.00,VWS V14.00,2013-02-06 18:50:00,
2013-02-06 13:51:00,20.1,-10.1,29.98,NW,326,0.0,0.0,25,0.00,,---,0.00,VWS V14.00,2013-02-06 18:51:00,
2013-02-06 13:52:00,20.1,-10.1,29.98,NW,326,0.0,0.0,25,0.00,,---,0.00,VWS V14.00,2013-02-06 18:52:00,
2013-02-06 13:55:00,20.7,-9.6,29.98,NW,326,4.7,5.4,25,0.00,,---,0.00,VWS V14.00,2013-02-06 18:55:00,
2013-02-06 13:56:00,20.7,-9.6,29.98,NW,326,0.0,3.4,25,0.00,,---,0.00,VWS V14.00,2013-02-06 18:56:00,
2013-02-06 13:57:00,20.7,-9.6,29.98,NW,326,3.4,3.4,25,0.00,,---,0.00,VWS V14.00,2013-02-06 18:57:00,
2013-02-06 14:00:00,20.7,-9.6,29.98,NW,326,4.0,4.7,25,0.00,,---,0.00,VWS V14.00,2013-02-06 19:00:00,
2013-02-06 14:01:00,20.7,-9.6,29.98,NW,326,5.4,5.4,25,0.00,,---,0.00,VWS V14.00,2013-02-06 19:01:00,
2013-02-06 14:02:00,20.5,-9.7,29.98,NW,326,6.0,8.1,25,0.00,,---,0.00,VWS V14.00,2013-02-06 19:02:00,
2013-02-06 14:05:00,20.7,-9.6,29.98,NW,326,4.0,5.4,25,0.00,,---,0.00,VWS V14.00,2013-02-06 19:05:00,
2013-02-06 14:06:00,20.7,-9.6,29.98,NW,326,3.4,3.4,25,0.00,,---,0.00,VWS V14.00,2013-02-06 19:06:00,
2013-02-06 14:07:00,20.7,-9.6,29.98,NW,326,0.0,0.0,25,0.00,,---,0.00,VWS V14.00,2013-02-06 19:07:00,
2013-02-06 14:10:00,21.0,-9.3,29.98,NW,326,0.0,3.4,25,0.00,,---,0.00,VWS V14.00,2013-02-06 19:10:00,
2013-02-06 14:11:00,21.2,-9.1,29.98,NW,326,4.0,4.0,25,0.00,,---,0.00,VWS V14.00,2013-02-06 19:11:00,
2013-02-06 14:12:00,21.2,-9.1,29.98,NW,326,0.0,3.4,25,0.00,,---,0.00,VWS V14.00,2013-02-06 19:12:00,
2013-02-06 14:15:00,21.4,-9.0,29.98,NW,326,0.0,0.0,25,0.00,,---,0.00,VWS V14.00,2013-02-06 19:15:00,
2013-02-06 14:16:00,21.2,-9.1,29.98,NW,326,4.0,4.0,25,0.00,,---,0.00,VWS V14.00,2013-02-06 19:16:00,
2013-02-06 14:17:00,21.4,-9.0,29.98,NW,326,3.4,3.4,25,0.00,,---,0.00,VWS V14.00,2013-02-06 19:17:00,
2013-02-06 14:21:00,21.2,-9.1,29.98,NW,326,3.4,6.0,25,0.00,,---,0.00,VWS V14.00,2013-02-06 19:21:00,
2013-02-06 14:22:00,21.6,-8.8,29.98,NW,326,4.0,4.0,25,0.00,,---,0.00,VWS V14.00,2013-02-06 19:22:00,
2013-02-06 14:26:00,21.7,-8.6,29.98,NW,326,0.0,0.0,25,0.00,,---,0.00,VWS V14.00,2013-02-06 19:26:00,
2013-02-06 14:27:00,21.7,-8.6,29.98,NW,326,0.0,0.0,25,0.00,,---,0.00,VWS V14.00,2013-02-06 19:27:00,
2013-02-06 14:31:00,21.4,-9.0,29.98,NW,326,0.0,4.0,25,0.00,,---,0.00,VWS V14.00,2013-02-06 19:31:00,
2013-02-06 14:32:00,21.7,-8.6,29.98,NW,326,0.0,4.0,25,0.00,,---,0.00,VWS V14.00,2013-02-06 19:32:00,
2013-02-06 14:36:00,21.9,-8.5,29.98,NW,326,4.7,4.7,25,0.00,,---,0.00,VWS V14.00,2013-02-06 19:36:00,
2013-02-06 14:37:00,21.7,-8.6,29.98,NW,326,3.4,4.0,25,0.00,,---,0.00,VWS V14.00,2013-02-06 19:37:00,
2013-02-06 14:38:00,21.7,-8.6,29.98,NW,326,4.0,4.0,25,0.00,,---,0.00,VWS V14.00,2013-02-06 19:38:00,
2013-02-06 14:41:00,22.1,-8.3,29.98,NW,326,4.7,6.0,25,0.00,,---,0.00,VWS V14.00,2013-02-06 19:41:00,
2013-02-06 14:42:00,22.1,-8.3,29.98,NW,326,4.7,6.0,25,0.00,,---,0.00,VWS V14.00,2013-02-06 19:42:00,
2013-02-06 14:43:00,22.1,-8.3,29.98,NW,326,4.0,5.4,25,0.00,,---,0.00,VWS V14.00,2013-02-06 19:43:00,
2013-02-06 14:46:00,22.5,-8.0,29.98,NW,326,0.0,6.0,25,0.00,,---,0.00,VWS V14.00,2013-02-06 19:46:00,
2013-02-06 14:47:00,22.5,-8.0,29.98,NW,326,0.0,6.0,25,0.00,,---,0.00,VWS V14.00,2013-02-06 19:47:00,
2013-02-06 14:48:00,22.5,-8.0,29.98,NW,326,4.7,6.0,25,0.00,,---,0.00,VWS V14.00,2013-02-06 19:48:00,
2013-02-06 14:52:00,22.8,-7.7,29.98,NW,326,4.7,5.4,25,0.00,,---,0.00,VWS V14.00,2013-02-06 19:52:00,
2013-02-06 14:53:00,22.8,-7.7,29.98,NW,326,4.0,5.4,25,0.00,,---,0.00,VWS V14.00,2013-02-06 19:53:00,
2013-02-06 14:57:00,22.5,-8.0,29.98,NW,326,0.0,4.7,25,0.00,,---,0.00,VWS V14.00,2013-02-06 19:57:00,
2013-02-06 14:58:00,22.5,-8.0,29.98,NW,326,4.0,4.0,25,0.00,,---,0.00,VWS V14.00,2013-02-06 19:58:00,
2013-02-06 15:02:00,22.5,-8.0,29.98,NW,326,0.0,0.0,25,0.00,,---,0.00,VWS V14.00,2013-02-06 20:02:00,
2013-02-06 15:03:00,22.6,-7.9,29.98,NW,326,0.0,3.4,25,0.00,,---,0.00,VWS V14.00,2013-02-06 20:03:00,
2013-02-06 15:07:00,23.0,-7.6,29.98,NW,326,4.0,5.4,25,0.00,,---,0.00,VWS V14.00,2013-02-06 20:07:00,
2013-02-06 15:08:00,23.2,-8.2,29.98,NW,326,4.7,5.4,24,0.00,,---,0.00,VWS V14.00,2013-02-06 20:08:00,
2013-02-06 15:12:00,22.8,-7.7,29.98,NW,326,3.4,5.4,25,0.00,,---,0.00,VWS V14.00,2013-02-06 20:12:00,
2013-02-06 15:13:00,22.8,-7.7,29.98,NW,326,3.4,4.0,25,0.00,,---,0.00,VWS V14.00,2013-02-06 20:13:00,
2013-02-06 15:17:00,22.3,-8.2,29.98,NW,326,4.0,4.0,25,0.00,,---,0.00,VWS V14.00,2013-02-06 20:17:00,
2013-02-06 15:18:00,22.3,-8.2,29.98,NW,326,4.0,4.0,25,0.00,,---,0.00,VWS V14.00,2013-02-06 20:18:00,
2013-02-06 15:22:00,22.1,-8.3,29.98,NW,326,0.0,0.0,25,0.00,,---,0.00,VWS V14.00,2013-02-06 20:22:00,
2013-02-06 15:23:00,21.9,-8.5,29.98,NW,326,5.4,5.4,25,0.00,,---,0.00,VWS V14.00,2013-02-06 20:23:00,
2013-02-06 15:24:00,21.6,-8.8,29.98,NW,326,4.0,5.4,25,0.00,,---,0.00,VWS V14.00,2013-02-06 20:24:00,
2013-02-06 15:27:00,21.7,-8.6,29.98,NW,326,4.7,5.4,25,0.00,,---,0.00,VWS V14.00,2013-02-06 20:27:00,
2013-02-06 15:28:00,21.7,-8.6,29.98,NW,326,3.4,4.7,25,0.00,,---,0.00,VWS V14.00,2013-02-06 20:28:00,
2013-02-06 15:29:00,21.7,-8.6,29.98,NW,326,3.4,4.7,25,0.00,,---,0.00,VWS V14.00,2013-02-06 20:29:00,
2013-02-06 15:32:00,21.7,-8.6,29.98,NW,326,4.7,6.0,25,0.00,,---,0.00,VWS V14.00,2013-02-06 20:32:00,
2013-02-06 15:33:00,21.7,-8.6,29.98,NW,326,0.0,3.4,25,0.00,,---,0.00,VWS V14.00,2013-02-06 20:33:00,
2013-02-06 15:34:00,21.7,-8.6,29.98,NW,326,0.0,3.4,25,0.00,,---,0.00,VWS V14.00,2013-02-06 20:34:00,
2013-02-06 15:37:00,21.9,-8.5,29.98,NW,326,4.7,4.7,25,0.00,,---,0.00,VWS V14.00,2013-02-06 20:37:00,
2013-02-06 15:38:00,21.9,-8.5,29.98,NW,326,5.4,5.4,25,0.00,,---,0.00,VWS V14.00,2013-02-06 20:38:00,
2013-02-06 15:39:00,21.9,-8.5,29.98,NW,326,5.4,5.4,25,0.00,,---,0.00,VWS V14.00,2013-02-06 20:39:00,
2013-02-06 15:42:00,21.9,-8.5,29.98,NW,326,0.0,4.0,25,0.00,,---,0.00,VWS V14.00,2013-02-06 20:42:00,
2013-02-06 15:43:00,21.9,-8.5,29.98,NW,326,0.0,4.0,25,0.00,,---,0.00,VWS V14.00,2013-02-06 20:43:00,
2013-02-06 15:44:00,21.9,-8.5,29.98,NW,326,0.0,0.0,25,0.00,,---,0.00,VWS V14.00,2013-02-06 20:44:00,
2013-02-06 15:48:00,21.9,-8.5,29.98,NW,326,4.0,4.0,25,0.00,,---,0.00,VWS V14.00,2013-02-06 20:48:00,
2013-02-06 15:49:00,21.6,-8.8,29.98,NW,326,4.0,4.0,25,0.00,,---,0.00,VWS V14.00,2013-02-06 20:49:00,
2013-02-06 15:53:00,21.6,-8.8,30.01,NW,326,4.7,5.4,25,0.00,,---,0.00,VWS V14.00,2013-02-06 20:53:00,
2013-02-06 15:54:00,21.7,-8.6,30.01,NW,326,3.4,3.4,25,0.00,,---,0.00,VWS V14.00,2013-02-06 20:54:00,
2013-02-06 15:58:00,21.9,-8.5,30.01,NW,326,3.4,3.4,25,0.00,,---,0.00,VWS V14.00,2013-02-06 20:58:00,
2013-02-06 15:59:00,21.9,-8.5,30.01,NW,326,0.0,0.0,25,0.00,,---,0.00,VWS V14.00,2013-02-06 20:59:00,
2013-02-06 16:03:00,21.9,-8.5,30.01,NW,326,0.0,4.0,25,0.00,,---,0.00,VWS V14.00,2013-02-06 21:03:00,
2013-02-06 16:04:00,21.9,-8.5,30.01,NW,326,0.0,4.0,25,0.00,,---,0.00,VWS V14.00,2013-02-06 21:04:00,
2013-02-06 16:08:00,21.9,-8.5,30.01,NW,326,0.0,0.0,25,0.00,,---,0.00,VWS V14.00,2013-02-06 21:08:00,
2013-02-06 16:09:00,21.9,-8.5,30.01,NW,326,0.0,0.0,25,0.00,,---,0.00,VWS V14.00,2013-02-06 21:09:00,
2013-02-06 16:13:00,21.9,-8.5,30.01,NW,326,0.0,4.0,25,0.00,,---,0.00,VWS V14.00,2013-02-06 21:13:00,
2013-02-06 16:14:00,21.7,-8.6,30.01,NW,326,0.0,0.0,25,0.00,,---,0.00,VWS V14.00,2013-02-06 21:14:00,
2013-02-06 16:18:00,21.6,-8.8,30.01,NW,326,0.0,0.0,25,0.00,,---,0.00,VWS V14.00,2013-02-06 21:18:00,
2013-02-06 16:19:00,21.6,-8.8,30.01,NW,326,4.7,4.7,25,0.00,,---,0.00,VWS V14.00,2013-02-06 21:19:00,
2013-02-06 16:23:00,21.6,-8.8,30.01,NW,326,0.0,0.0,25,0.00,,---,0.00,VWS V14.00,2013-02-06 21:23:00,
2013-02-06 16:24:00,21.6,-8.8,30.01,NW,326,0.0,0.0,25,0.00,,---,0.00,VWS V14.00,2013-02-06 21:24:00,
2013-02-06 16:29:00,21.2,-9.1,30.01,NW,326,0.0,0.0,25,0.00,,---,0.00,VWS V14.00,2013-02-06 21:29:00,
2013-02-06 16:34:00,21.2,-9.1,30.01,NW,326,3.4,3.4,25,0.00,,---,0.00,VWS V14.00,2013-02-06 21:34:00,
2013-02-06 16:39:00,21.2,-9.1,30.01,NW,326,5.4,5.4,25,0.00,,---,0.00,VWS V14.00,2013-02-06 21:39:00,
2013-02-06 16:40:00,21.0,-9.3,30.01,NW,326,3.4,3.4,25,0.00,,---,0.00,VWS V14.00,2013-02-06 21:40:00,
2013-02-06 16:44:00,20.8,-9.4,30.01,NW,326,0.0,0.0,25,0.00,,---,0.00,VWS V14.00,2013-02-06 21:44:00,
2013-02-06 16:45:00,20.8,-9.4,30.01,NW,326,0.0,0.0,25,0.00,,---,0.00,VWS V14.00,2013-02-06 21:45:00,
2013-02-06 16:49:00,20.5,-9.7,30.01,NW,326,0.0,0.0,25,0.00,,---,0.00,VWS V14.00,2013-02-06 21:49:00,
2013-02-06 16:50:00,20.5,-9.7,30.01,NW,326,0.0,0.0,25,0.00,,---,0.00,VWS V14.00,2013-02-06 21:50:00,
2013-02-06 16:54:00,20.3,-9.9,30.01,NW,326,0.0,0.0,25,0.00,,---,0.00,VWS V14.00,2013-02-06 21:54:00,
2013-02-06 16:55:00,20.3,-9.9,30.01,NW,326,0.0,0.0,25,0.00,,---,0.00,VWS V14.00,2013-02-06 21:55:00,
2013-02-06 16:59:00,20.1,-10.1,30.01,NW,326,0.0,0.0,25,0.00,,---,0.00,VWS V14.00,2013-02-06 21:59:00,
2013-02-06 17:00:00,20.1,-10.1,30.01,NW,326,0.0,0.0,25,0.00,,---,0.00,VWS V14.00,2013-02-06 22:00:00,
2013-02-06 17:04:00,19.9,-10.2,30.01,NW,326,0.0,0.0,25,0.00,,---,0.00,VWS V14.00,2013-02-06 22:04:00,
2013-02-06 17:05:00,19.9,-10.2,30.01,NW,326,3.4,3.4,25,0.00,,---,0.00,VWS V14.00,2013-02-06 22:05:00,
2013-02-06 17:09:00,19.9,-10.2,29.98,NW,326,4.7,4.7,25,0.00,,---,0.00,VWS V14.00,2013-02-06 22:09:00,
2013-02-06 17:10:00,19.9,-10.2,29.98,NW,326,0.0,0.0,25,0.00,,---,0.00,VWS V14.00,2013-02-06 22:10:00,
2013-02-06 17:14:00,19.9,-10.2,29.98,NW,326,0.0,0.0,25,0.00,,---,0.00,VWS V14.00,2013-02-06 22:14:00,
2013-02-06 17:15:00,19.9,-10.2,29.98,NW,326,0.0,0.0,25,0.00,,---,0.00,VWS V14.00,2013-02-06 22:15:00,
2013-02-06 17:19:00,19.9,-10.2,29.98,NW,326,0.0,0.0,25,0.00,,---,0.00,VWS V14.00,2013-02-06 22:19:00,
2013-02-06 17:20:00,19.9,-10.2,29.98,NW,326,0.0,0.0,25,0.00,,---,0.00,VWS V14.00,2013-02-06 22:20:00,
2013-02-06 17:21:00,19.8,-10.4,29.98,NW,326,0.0,0.0,25,0.00,,---,0.00,VWS V14.00,2013-02-06 22:21:00,
2013-02-06 17:24:00,19.8,-10.4,29.98,NW,326,0.0,0.0,25,0.00,,---,0.00,VWS V14.00,2013-02-06 22:24:00,
2013-02-06 17:25:00,19.8,-10.4,29.98,NW,326,0.0,0.0,25,0.00,,---,0.00,VWS V14.00,2013-02-06 22:25:00,
2013-02-06 17:26:00,19.8,-10.4,29.98,NW,326,0.0,0.0,25,0.00,,---,0.00,VWS V14.00,2013-02-06 22:26:00,
2013-02-06 17:29:00,19.6,-10.5,29.98,NW,326,0.0,3.4,25,0.00,,---,0.00,VWS V14.00,2013-02-06 22:29:00,
2013-02-06 17:30:00,19.6,-10.5,29.98,NW,326,4.0,4.0,25,0.00,,---,0.00,VWS V14.00,2013-02-06 22:30:00,
2013-02-06 17:31:00,19.6,-10.5,29.98,NW,326,0.0,0.0,25,0.00,,---,0.00,VWS V14.00,2013-02-06 22:31:00,
2013-02-06 17:34:00,19.6,-10.5,29.98,NW,326,0.0,0.0,25,0.00,,---,0.00,VWS V14.00,2013-02-06 22:34:00,
2013-02-06 17:35:00,19.6,-10.5,29.98,NW,326,0.0,0.0,25,0.00,,---,0.00,VWS V14.00,2013-02-06 22:35:00,
2013-02-06 17:36:00,19.6,-10.5,29.98,NW,326,0.0,0.0,25,0.00,,---,0.00,VWS V14.00,2013-02-06 22:36:00,
2013-02-06 17:39:00,19.6,-10.5,29.98,NW,326,0.0,0.0,25,0.00,,---,0.00,VWS V14.00,2013-02-06 22:39:00,
2013-02-06 17:40:00,19.6,-10.5,29.98,NW,326,3.4,4.0,25,0.00,,---,0.00,VWS V14.00,2013-02-06 22:40:00,
2013-02-06 17:41:00,19.6,-10.5,29.98,NW,326,5.4,5.4,25,0.00,,---,0.00,VWS V14.00,2013-02-06 22:41:00,
2013-02-06 17:44:00,19.6,-10.5,29.98,NW,326,4.0,4.0,25,0.00,,---,0.00,VWS V14.00,2013-02-06 22:44:00,
2013-02-06 17:45:00,19.6,-10.5,29.98,NW,326,5.4,5.4,25,0.00,,---,0.00,VWS V14.00,2013-02-06 22:45:00,
2013-02-06 17:46:00,19.6,-10.5,29.98,NW,326,4.7,4.7,25,0.00,,---,0.00,VWS V14.00,2013-02-06 22:46:00,
2013-02-06 17:49:00,19.4,-10.7,29.98,NW,326,5.4,5.4,25,0.00,,---,0.00,VWS V14.00,2013-02-06 22:49:00,
2013-02-06 17:50:00,19.2,-10.8,29.98,NW,326,4.7,4.7,25,0.00,,---,0.00,VWS V14.00,2013-02-06 22:50:00,
2013-02-06 17:51:00,19.2,-10.8,29.98,NW,326,4.7,4.7,25,0.00,,---,0.00,VWS V14.00,2013-02-06 22:51:00,
2013-02-06 17:54:00,19.0,-11.0,29.98,NW,326,3.4,4.0,25,0.00,,---,0.00,VWS V14.00,2013-02-06 22:54:00,
2013-02-06 17:55:00,19.0,-11.0,29.98,NW,326,4.0,4.7,25,0.00,,---,0.00,VWS V14.00,2013-02-06 22:55:00,
2013-02-06 17:56:00,19.0,-11.0,29.98,NW,326,4.0,4.7,25,0.00,,---,0.00,VWS V14.00,2013-02-06 22:56:00,
2013-02-06 17:59:00,18.7,-11.3,29.98,NW,326,4.7,5.4,25,0.00,,---,0.00,VWS V14.00,2013-02-06 22:59:00,
2013-02-06 18:01:00,18.5,-11.4,29.98,NW,326,3.4,4.0,25,0.00,,---,0.00,VWS V14.00,2013-02-06 23:01:00,
2013-02-06 18:04:00,18.3,-11.6,29.98,NW,326,4.0,4.0,25,0.00,,---,0.00,VWS V14.00,2013-02-06 23:04:00,
2013-02-06 18:06:00,18.3,-11.6,29.98,NW,326,3.4,4.0,25,0.00,,---,0.00,VWS V14.00,2013-02-06 23:06:00,
2013-02-06 18:07:00,18.3,-11.6,29.98,NW,326,0.0,3.4,25,0.00,,---,0.00,VWS V14.00,2013-02-06 23:07:00,
2013-02-06 18:09:00,18.1,-11.8,29.98,NW,326,0.0,3.4,25,0.00,,---,0.00,VWS V14.00,2013-02-06 23:09:00,
2013-02-06 18:11:00,18.1,-11.8,29.98,NW,326,0.0,0.0,25,0.00,,---,0.00,VWS V14.00,2013-02-06 23:11:00,
2013-02-06 18:12:00,18.0,-11.9,29.98,NW,326,0.0,0.0,25,0.00,,---,0.00,VWS V14.00,2013-02-06 23:12:00,
2013-02-06 18:14:00,17.8,-12.1,29.98,NW,326,0.0,3.4,25,0.00,,---,0.00,VWS V14.00,2013-02-06 23:14:00,
2013-02-06 18:16:00,17.8,-12.1,29.98,NW,326,0.0,0.0,25,0.00,,---,0.00,VWS V14.00,2013-02-06 23:16:00,
2013-02-06 18:17:00,17.8,-12.1,29.98,NW,326,0.0,0.0,25,0.00,,---,0.00,VWS V14.00,2013-02-06 23:17:00,
2013-02-06 18:20:00,17.6,-11.4,29.98,NW,326,0.0,0.0,26,0.00,,---,0.00,VWS V14.00,2013-02-06 23:20:00,
2013-02-06 18:21:00,17.6,-11.4,30.01,NW,326,0.0,0.0,26,0.00,,---,0.00,VWS V14.00,2013-02-06 23:21:00,
2013-02-06 18:22:00,17.6,-11.4,30.01,NW,326,0.0,0.0,26,0.00,,---,0.00,VWS V14.00,2013-02-06 23:22:00,
2013-02-06 18:25:00,17.6,-11.4,30.01,NW,326,0.0,0.0,26,0.00,,---,0.00,VWS V14.00,2013-02-06 23:25:00,
2013-02-06 18:26:00,17.6,-11.4,30.01,NW,326,0.0,0.0,26,0.00,,---,0.00,VWS V14.00,2013-02-06 23:26:00,
2013-02-06 18:27:00,17.4,-11.6,30.01,NW,326,0.0,0.0,26,0.00,,---,0.00,VWS V14.00,2013-02-06 23:27:00,
2013-02-06 18:30:00,17.4,-10.1,30.01,NW,326,0.0,0.0,28,0.00,,---,0.00,VWS V14.00,2013-02-06 23:30:00,
2013-02-06 18:31:00,17.4,-10.1,30.01,NW,325,0.0,0.0,28,0.00,,---,0.00,VWS V14.00,2013-02-06 23:31:00,
2013-02-06 18:32:00,17.4,-10.1,30.01,NW,326,0.0,0.0,28,0.00,,---,0.00,VWS V14.00,2013-02-06 23:32:00,
2013-02-06 18:35:00,17.4,-10.1,30.01,NW,326,0.0,0.0,28,0.00,,---,0.00,VWS V14.00,2013-02-06 23:35:00,
2013-02-06 18:36:00,17.4,-10.1,30.01,NW,326,0.0,0.0,28,0.00,,---,0.00,VWS V14.00,2013-02-06 23:36:00,
2013-02-06 18:37:00,17.4,-10.1,30.01,NW,326,0.0,0.0,28,0.00,,---,0.00,VWS V14.00,2013-02-06 23:37:00,
2013-02-06 18:40:00,17.2,-10.3,30.01,NW,326,0.0,0.0,28,0.00,,---,0.00,VWS V14.00,2013-02-06 23:40:00,
2013-02-06 18:41:00,17.2,-10.3,30.01,NW,326,0.0,0.0,28,0.00,,---,0.00,VWS V14.00,2013-02-06 23:41:00,
2013-02-06 18:42:00,17.2,-10.3,30.01,NW,326,0.0,0.0,28,0.00,,---,0.00,VWS V14.00,2013-02-06 23:42:00,
2013-02-06 18:45:00,17.2,-8.2,30.01,NW,326,0.0,0.0,31,0.00,,---,0.00,VWS V14.00,2013-02-06 23:45:00,
2013-02-06 18:47:00,17.1,-8.4,30.01,NW,326,0.0,0.0,31,0.00,,---,0.00,VWS V14.00,2013-02-06 23:47:00,
2013-02-06 18:50:00,17.1,-8.4,30.01,NW,326,0.0,0.0,31,0.00,,---,0.00,VWS V14.00,2013-02-06 23:50:00,
2013-02-06 18:52:00,17.1,-7.1,30.01,NW,326,0.0,0.0,33,0.00,,---,0.00,VWS V14.00,2013-02-06 23:52:00,
2013-02-06 18:53:00,17.1,-7.1,30.01,NW,326,0.0,0.0,33,0.00,,---,0.00,VWS V14.00,2013-02-06 23:53:00,
2013-02-06 18:55:00,17.1,-7.1,30.01,NW,326,0.0,0.0,33,0.00,,---,0.00,VWS V14.00,2013-02-06 23:55:00,
2013-02-06 18:57:00,17.1,-6.5,30.01,NW,326,0.0,0.0,34,0.00,,---,0.00,VWS V14.00,2013-02-06 23:57:00,
2013-02-06 18:58:00,17.1,-6.5,30.01,NW,326,0.0,0.0,34,0.00,,---,0.00,VWS V14.00,2013-02-06 23:58:00,
2013-02-06 19:00:00,17.1,-6.5,30.01,NW,326,0.0,0.0,34,0.00,,---,0.00,VWS V14.00,2013-02-07 00:00:00,
2013-02-06 19:02:00,17.1,-6.5,30.01,NW,326,0.0,0.0,34,0.00,,---,0.00,VWS V14.00,2013-02-07 00:02:00,
2013-02-06 19:03:00,17.1,-6.5,30.01,NW,326,0.0,0.0,34,0.00,,---,0.00,VWS V14.00,2013-02-07 00:03:00,
2013-02-06 19:05:00,17.1,-6.5,30.01,NW,326,0.0,0.0,34,0.00,,---,0.00,VWS V14.00,2013-02-07 00:05:00,
2013-02-06 19:07:00,17.1,-6.5,30.01,NW,326,0.0,0.0,34,0.00,,---,0.00,VWS V14.00,2013-02-07 00:07:00,
2013-02-06 19:08:00,17.1,-6.5,30.01,NW,326,0.0,0.0,34,0.00,,---,0.00,VWS V14.00,2013-02-07 00:08:00,
2013-02-06 19:10:00,17.1,-5.9,30.01,NW,326,0.0,0.0,35,0.00,,---,0.00,VWS V14.00,2013-02-07 00:10:00,
2013-02-06 19:12:00,16.9,-6.0,30.01,NW,326,0.0,0.0,35,0.00,,---,0.00,VWS V14.00,2013-02-07 00:12:00,
2013-02-06 19:13:00,16.9,-6.0,30.01,NW,326,0.0,0.0,35,0.00,,---,0.00,VWS V14.00,2013-02-07 00:13:00,
2013-02-06 19:15:00,16.7,-6.2,30.01,NW,326,0.0,0.0,35,0.00,,---,0.00,VWS V14.00,2013-02-07 00:15:00,
2013-02-06 19:17:00,16.7,-6.2,30.01,NW,326,0.0,0.0,35,0.00,,---,0.00,VWS V14.00,2013-02-07 00:17:00,
2013-02-06 19:18:00,16.7,-6.2,30.01,NW,326,0.0,0.0,35,0.00,,---,0.00,VWS V14.00,2013-02-07 00:18:00,
2013-02-06 19:20:00,16.5,-6.3,30.01,NW,326,0.0,0.0,35,0.00,,---,0.00,VWS V14.00,2013-02-07 00:20:00,
2013-02-06 19:22:00,16.5,-6.3,30.01,NW,326,0.0,0.0,35,0.00,,---,0.00,VWS V14.00,2013-02-07 00:22:00,
2013-02-06 19:23:00,16.3,-6.5,30.01,NW,326,0.0,0.0,35,0.00,,---,0.00,VWS V14.00,2013-02-07 00:23:00,
2013-02-06 19:25:00,16.2,-6.7,30.01,NW,326,0.0,0.0,35,0.00,,---,0.00,VWS V14.00,2013-02-07 00:25:00,
2013-02-06 19:27:00,16.2,-6.7,30.01,NW,326,0.0,0.0,35,0.00,,---,0.00,VWS V14.00,2013-02-07 00:27:00,
2013-02-06 19:28:00,16.2,-6.7,30.01,NW,326,0.0,0.0,35,0.00,,---,0.00,VWS V14.00,2013-02-07 00:28:00,
2013-02-06 19:30:00,16.0,-6.8,30.01,NW,326,0.0,0.0,35,0.00,,---,0.00,VWS V14.00,2013-02-07 00:30:00,
2013-02-06 19:32:00,16.0,-6.8,30.01,NW,326,0.0,0.0,35,0.00,,---,0.00,VWS V14.00,2013-02-07 00:32:00,
2013-02-06 19:33:00,16.0,-6.8,30.01,NW,326,0.0,0.0,35,0.00,,---,0.00,VWS V14.00,2013-02-07 00:33:00,
2013-02-06 19:34:00,16.0,-6.8,30.01,NW,326,0.0,0.0,35,0.00,,---,0.00,VWS V14.00,2013-02-07 00:34:00,
2013-02-06 19:36:00,16.0,-6.8,30.01,NW,326,0.0,0.0,35,0.00,,---,0.00,VWS V14.00,2013-02-07 00:36:00,
2013-02-06 19:38:00,15.8,-6.4,30.01,NW,326,0.0,0.0,36,0.00,,---,0.00,VWS V14.00,2013-02-07 00:38:00,
2013-02-06 19:39:00,15.8,-6.4,30.01,NW,326,0.0,0.0,36,0.00,,---,0.00,VWS V14.00,2013-02-07 00:39:00,
2013-02-06 19:41:00,15.8,-6.4,30.01,NW,326,0.0,0.0,36,0.00,,---,0.00,VWS V14.00,2013-02-07 00:41:00,
2013-02-06 19:43:00,15.8,-6.4,30.01,NW,326,0.0,0.0,36,0.00,,---,0.00,VWS V14.00,2013-02-07 00:43:00,
2013-02-06 19:44:00,15.8,-6.4,30.01,NW,326,0.0,0.0,36,0.00,,---,0.00,VWS V14.00,2013-02-07 00:44:00,
2013-02-06 19:46:00,15.8,-6.4,30.01,NW,326,0.0,0.0,36,0.00,,---,0.00,VWS V14.00,2013-02-07 00:46:00,
2013-02-06 19:48:00,15.8,-6.4,30.01,NW,326,0.0,0.0,36,0.00,,---,0.00,VWS V14.00,2013-02-07 00:48:00,
2013-02-06 19:49:00,15.8,-6.4,30.01,NW,326,0.0,0.0,36,0.00,,---,0.00,VWS V14.00,2013-02-07 00:49:00,
2013-02-06 19:51:00,15.8,-6.4,30.01,NW,326,3.4,3.4,36,0.00,,---,0.00,VWS V14.00,2013-02-07 00:51:00,
2013-02-06 19:53:00,15.8,-5.8,30.01,NW,326,3.4,3.4,37,0.00,,---,0.00,VWS V14.00,2013-02-07 00:53:00,
2013-02-06 19:54:00,15.8,-5.8,30.01,NW,326,0.0,0.0,37,0.00,,---,0.00,VWS V14.00,2013-02-07 00:54:00,
2013-02-06 19:56:00,15.8,-6.4,30.01,NW,326,0.0,0.0,36,0.00,,---,0.00,VWS V14.00,2013-02-07 00:56:00,
2013-02-06 19:58:00,15.8,-6.4,30.01,NW,326,0.0,0.0,36,0.00,,---,0.00,VWS V14.00,2013-02-07 00:58:00,
2013-02-06 20:00:00,15.8,-5.8,30.01,NW,326,4.0,4.0,37,0.00,,---,0.00,VWS V14.00,2013-02-07 01:00:00,
2013-02-06 20:01:00,15.8,-5.8,30.01,NW,326,0.0,0.0,37,0.00,,---,0.00,VWS V14.00,2013-02-07 01:01:00,
2013-02-06 20:03:00,15.8,-5.8,30.01,NW,326,0.0,0.0,37,0.00,,---,0.00,VWS V14.00,2013-02-07 01:03:00,
2013-02-06 20:05:00,15.8,-5.8,30.01,NW,326,0.0,0.0,37,0.00,,---,0.00,VWS V14.00,2013-02-07 01:05:00,
2013-02-06 20:06:00,15.8,-6.4,30.01,NW,326,0.0,0.0,36,0.00,,---,0.00,VWS V14.00,2013-02-07 01:06:00,
2013-02-06 20:08:00,15.8,-6.4,30.01,NW,326,0.0,0.0,36,0.00,,---,0.00,VWS V14.00,2013-02-07 01:08:00,
2013-02-06 20:10:00,15.8,-6.4,30.01,NW,326,0.0,0.0,36,0.00,,---,0.00,VWS V14.00,2013-02-07 01:10:00,
2013-02-06 20:11:00,15.8,-6.4,30.01,NW,326,0.0,0.0,36,0.00,,---,0.00,VWS V14.00,2013-02-07 01:11:00,
2013-02-06 20:13:00,15.8,-6.4,30.01,NW,326,0.0,0.0,36,0.00,,---,0.00,VWS V14.00,2013-02-07 01:13:00,
2013-02-06 20:14:00,15.8,-6.4,30.01,NW,326,0.0,0.0,36,0.00,,---,0.00,VWS V14.00,2013-02-07 01:14:00,
2013-02-06 20:15:00,15.8,-6.4,30.01,NW,326,0.0,0.0,36,0.00,,---,0.00,VWS V14.00,2013-02-07 01:15:00,
2013-02-06 20:16:00,15.8,-6.4,30.01,NW,326,0.0,0.0,36,0.00,,---,0.00,VWS V14.00,2013-02-07 01:16:00,
2013-02-06 20:18:00,15.8,-6.4,30.01,NW,326,0.0,0.0,36,0.00,,---,0.00,VWS V14.00,2013-02-07 01:18:00,
2013-02-06 20:19:00,15.8,-6.4,30.01,NW,326,0.0,0.0,36,0.00,,---,0.00,VWS V14.00,2013-02-07 01:19:00,
2013-02-06 20:20:00,15.8,-6.4,30.01,NW,326,0.0,0.0,36,0.00,,---,0.00,VWS V14.00,2013-02-07 01:20:00,
2013-02-06 20:21:00,15.8,-6.4,30.01,NW,326,0.0,0.0,36,0.00,,---,0.00,VWS V14.00,2013-02-07 01:21:00,
2013-02-06 20:24:00,15.8,-6.4,30.01,NW,326,0.0,0.0,36,0.00,,---,0.00,VWS V14.00,2013-02-07 01:24:00,
2013-02-06 20:26:00,15.8,-6.4,30.01,NW,326,0.0,0.0,36,0.00,,---,0.00,VWS V14.00,2013-02-07 01:26:00,
2013-02-06 20:29:00,15.8,-6.4,30.01,NW,326,0.0,0.0,36,0.00,,---,0.00,VWS V14.00,2013-02-07 01:29:00,
2013-02-06 20:31:00,15.8,-6.4,30.01,NW,326,0.0,0.0,36,0.00,,---,0.00,VWS V14.00,2013-02-07 01:31:00,
2013-02-06 20:34:00,15.6,-6.0,30.01,NW,326,0.0,0.0,37,0.00,,---,0.00,VWS V14.00,2013-02-07 01:34:00,
2013-02-06 20:36:00,15.6,-6.0,30.01,NW,326,0.0,0.0,37,0.00,,---,0.00,VWS V14.00,2013-02-07 01:36:00,
2013-02-06 20:37:00,15.6,-6.0,30.01,NW,326,0.0,0.0,37,0.00,,---,0.00,VWS V14.00,2013-02-07 01:37:00,
2013-02-06 20:39:00,15.6,-6.0,30.01,NW,326,0.0,0.0,37,0.00,,---,0.00,VWS V14.00,2013-02-07 01:39:00,
2013-02-06 20:41:00,15.6,-6.0,30.01,NW,326,0.0,0.0,37,0.00,,---,0.00,VWS V14.00,2013-02-07 01:41:00,
2013-02-06 20:42:00,15.6,-6.0,30.01,NW,326,0.0,0.0,37,0.00,,---,0.00,VWS V14.00,2013-02-07 01:42:00,
2013-02-06 20:44:00,15.6,-6.0,30.01,NW,326,4.0,4.0,37,0.00,,---,0.00,VWS V14.00,2013-02-07 01:44:00,
2013-02-06 20:46:00,15.6,-6.0,30.01,NW,326,3.4,3.4,37,0.00,,---,0.00,VWS V14.00,2013-02-07 01:46:00,
2013-02-06 20:47:00,15.6,-6.0,30.01,NW,326,0.0,3.4,37,0.00,,---,0.00,VWS V14.00,2013-02-07 01:47:00,
2013-02-06 20:49:00,15.6,-6.6,30.01,NW,326,3.4,3.4,36,0.00,,---,0.00,VWS V14.00,2013-02-07 01:49:00,
2013-02-06 20:51:00,15.4,-6.7,29.98,NW,326,0.0,0.0,36,0.00,,---,0.00,VWS V14.00,2013-02-07 01:51:00,
2013-02-06 20:52:00,15.4,-6.7,29.98,NW,326,3.4,3.4,36,0.00,,---,0.00,VWS V14.00,2013-02-07 01:52:00,
2013-02-06 20:54:00,15.4,-6.2,29.98,NW,326,0.0,0.0,37,0.00,,---,0.00,VWS V14.00,2013-02-07 01:54:00,
2013-02-06 20:56:00,15.4,-6.2,29.98,NW,326,0.0,3.4,37,0.00,,---,0.00,VWS V14.00,2013-02-07 01:56:00,
2013-02-06 20:57:00,15.4,-6.2,29.98,NW,326,0.0,3.4,37,0.00,,---,0.00,VWS V14.00,2013-02-07 01:57:00,
2013-02-06 20:59:00,15.4,-6.2,29.98,NW,326,0.0,3.4,37,0.00,,---,0.00,VWS V14.00,2013-02-07 01:59:00,
2013-02-06 21:01:00,15.4,-6.2,29.98,NW,326,0.0,0.0,37,0.00,,---,0.00,VWS V14.00,2013-02-07 02:01:00,
2013-02-06 21:02:00,15.3,-6.3,29.98,NW,326,0.0,3.4,37,0.00,,---,0.00,VWS V14.00,2013-02-07 02:02:00,
2013-02-06 21:04:00,15.3,-6.9,29.98,NW,326,3.4,3.4,36,0.00,,---,0.00,VWS V14.00,2013-02-07 02:04:00,
2013-02-06 21:06:00,15.3,-6.9,29.98,NW,326,0.0,0.0,36,0.00,,---,0.00,VWS V14.00,2013-02-07 02:06:00,
2013-02-06 21:07:00,15.3,-6.9,29.98,NW,326,0.0,0.0,36,0.00,,---,0.00,VWS V14.00,2013-02-07 02:07:00,
2013-02-06 21:09:00,15.3,-6.9,29.98,NW,326,0.0,0.0,36,0.00,,---,0.00,VWS V14.00,2013-02-07 02:09:00,
2013-02-06 21:11:00,15.3,-6.9,29.98,NW,326,0.0,0.0,36,0.00,,---,0.00,VWS V14.00,2013-02-07 02:11:00,
2013-02-06 21:12:00,15.3,-6.9,29.98,NW,326,0.0,0.0,36,0.00,,---,0.00,VWS V14.00,2013-02-07 02:12:00,
2013-02-06 21:14:00,15.3,-6.9,29.98,NW,326,0.0,0.0,36,0.00,,---,0.00,VWS V14.00,2013-02-07 02:14:00,
2013-02-06 21:16:00,15.3,-6.9,29.98,NW,326,0.0,0.0,36,0.00,,---,0.00,VWS V14.00,2013-02-07 02:16:00,
2013-02-06 21:17:00,15.3,-6.9,29.98,NW,326,0.0,0.0,36,0.00,,---,0.00,VWS V14.00,2013-02-07 02:17:00,
2013-02-06 21:19:00,15.3,-6.9,29.98,NW,326,0.0,0.0,36,0.00,,---,0.00,VWS V14.00,2013-02-07 02:19:00,
2013-02-06 21:21:00,15.3,-6.9,30.01,NW,326,0.0,0.0,36,0.00,,---,0.00,VWS V14.00,2013-02-07 02:21:00,
2013-02-06 21:22:00,15.3,-6.9,30.01,NW,326,0.0,0.0,36,0.00,,---,0.00,VWS V14.00,2013-02-07 02:22:00,
2013-02-06 21:24:00,15.3,-6.9,30.01,NW,326,0.0,0.0,36,0.00,,---,0.00,VWS V14.00,2013-02-07 02:24:00,
2013-02-06 21:25:00,15.3,-6.9,30.01,NW,326,0.0,0.0,36,0.00,,---,0.00,VWS V14.00,2013-02-07 02:25:00,
2013-02-06 21:26:00,15.3,-6.9,30.01,NW,326,0.0,0.0,36,0.00,,---,0.00,VWS V14.00,2013-02-07 02:26:00,
2013-02-06 21:27:00,15.3,-6.9,30.01,NW,326,0.0,0.0,36,0.00,,---,0.00,VWS V14.00,2013-02-07 02:27:00,
2013-02-06 21:30:00,15.3,-6.9,30.01,NW,326,0.0,0.0,36,0.00,,---,0.00,VWS V14.00,2013-02-07 02:30:00,
2013-02-06 21:31:00,15.3,-6.9,30.01,NW,326,0.0,0.0,36,0.00,,---,0.00,VWS V14.00,2013-02-07 02:31:00,
2013-02-06 21:32:00,15.3,-6.9,30.01,NW,326,0.0,0.0,36,0.00,,---,0.00,VWS V14.00,2013-02-07 02:32:00,
2013-02-06 21:35:00,15.3,-6.9,30.01,NW,326,0.0,0.0,36,0.00,,---,0.00,VWS V14.00,2013-02-07 02:35:00,
2013-02-06 21:36:00,15.3,-6.9,30.01,NW,326,0.0,0.0,36,0.00,,---,0.00,VWS V14.00,2013-02-07 02:36:00,
2013-02-06 21:37:00,15.4,-6.7,30.01,NW,326,0.0,0.0,36,0.00,,---,0.00,VWS V14.00,2013-02-07 02:37:00,
2013-02-06 21:40:00,15.4,-6.7,30.01,NW,326,0.0,0.0,36,0.00,,---,0.00,VWS V14.00,2013-02-07 02:40:00,
2013-02-06 21:42:00,15.4,-6.7,30.01,NW,326,0.0,0.0,36,0.00,,---,0.00,VWS V14.00,2013-02-07 02:42:00,
2013-02-06 21:43:00,15.4,-6.7,30.01,NW,326,0.0,0.0,36,0.00,,---,0.00,VWS V14.00,2013-02-07 02:43:00,
2013-02-06 21:45:00,15.4,-6.7,30.01,NW,326,0.0,0.0,36,0.00,,---,0.00,VWS V14.00,2013-02-07 02:45:00,
2013-02-06 21:47:00,15.4,-6.7,30.01,NW,326,0.0,0.0,36,0.00,,---,0.00,VWS V14.00,2013-02-07 02:47:00,
2013-02-06 21:48:00,15.4,-6.7,30.01,NW,326,0.0,0.0,36,0.00,,---,0.00,VWS V14.00,2013-02-07 02:48:00,
2013-02-06 21:50:00,15.4,-6.7,30.01,NW,326,0.0,0.0,36,0.00,,---,0.00,VWS V14.00,2013-02-07 02:50:00,
2013-02-06 21:52:00,15.4,-6.7,30.01,NW,326,0.0,0.0,36,0.00,,---,0.00,VWS V14.00,2013-02-07 02:52:00,
2013-02-06 21:53:00,15.4,-6.7,30.01,NW,326,0.0,0.0,36,0.00,,---,0.00,VWS V14.00,2013-02-07 02:53:00,
2013-02-06 21:55:00,15.3,-6.9,30.01,NW,326,0.0,0.0,36,0.00,,---,0.00,VWS V14.00,2013-02-07 02:55:00,
2013-02-06 21:57:00,15.3,-6.9,30.01,NW,326,0.0,0.0,36,0.00,,---,0.00,VWS V14.00,2013-02-07 02:57:00,
2013-02-06 21:58:00,15.3,-6.9,30.01,NW,326,0.0,0.0,36,0.00,,---,0.00,VWS V14.00,2013-02-07 02:58:00,
2013-02-06 22:00:00,15.3,-6.9,30.01,NW,326,0.0,0.0,36,0.00,,---,0.00,VWS V14.00,2013-02-07 03:00:00,
2013-02-06 22:02:00,15.3,-6.9,30.01,NW,326,0.0,0.0,36,0.00,,---,0.00,VWS V14.00,2013-02-07 03:02:00,
2013-02-06 22:03:00,15.3,-6.9,30.01,NW,326,0.0,0.0,36,0.00,,---,0.00,VWS V14.00,2013-02-07 03:03:00,
2013-02-06 22:05:00,15.3,-6.9,30.01,NW,326,0.0,0.0,36,0.00,,---,0.00,VWS V14.00,2013-02-07 03:05:00,
2013-02-06 22:07:00,15.3,-6.9,30.01,NW,326,0.0,0.0,36,0.00,,---,0.00,VWS V14.00,2013-02-07 03:07:00,
2013-02-06 22:08:00,15.3,-6.9,30.01,NW,326,0.0,0.0,36,0.00,,---,0.00,VWS V14.00,2013-02-07 03:08:00,
2013-02-06 22:10:00,15.3,-6.9,30.01,NW,326,0.0,0.0,36,0.00,,---,0.00,VWS V14.00,2013-02-07 03:10:00,
2013-02-06 22:11:00,15.3,-6.9,30.01,NW,326,0.0,0.0,36,0.00,,---,0.00,VWS V14.00,2013-02-07 03:11:00,
2013-02-06 22:12:00,15.3,-6.3,30.01,NW,326,0.0,0.0,37,0.00,,---,0.00,VWS V14.00,2013-02-07 03:12:00,
2013-02-06 22:13:00,15.3,-6.3,30.01,NW,326,0.0,0.0,37,0.00,,---,0.00,VWS V14.00,2013-02-07 03:13:00,
2013-02-06 22:15:00,15.3,-6.3,30.01,NW,326,0.0,0.0,37,0.00,,---,0.00,VWS V14.00,2013-02-07 03:15:00,
2013-02-06 22:16:00,15.3,-6.3,30.01,NW,326,0.0,0.0,37,0.00,,---,0.00,VWS V14.00,2013-02-07 03:16:00,
2013-02-06 22:17:00,15.3,-6.3,30.01,NW,326,0.0,0.0,37,0.00,,---,0.00,VWS V14.00,2013-02-07 03:17:00,
2013-02-06 22:18:00,15.3,-6.3,30.01,NW,326,0.0,0.0,37,0.00,,---,0.00,VWS V14.00,2013-02-07 03:18:00,
2013-02-06 22:20:00,15.3,-6.3,30.01,NW,326,0.0,0.0,37,0.00,,---,0.00,VWS V14.00,2013-02-07 03:20:00,
2013-02-06 22:21:00,15.3,-6.3,30.01,NW,326,0.0,0.0,37,0.00,,---,0.00,VWS V14.00,2013-02-07 03:21:00,
2013-02-06 22:22:00,15.3,-6.3,30.01,NW,326,0.0,0.0,37,0.00,,---,0.00,VWS V14.00,2013-02-07 03:22:00,
2013-02-06 22:23:00,15.3,-6.3,30.01,NW,326,0.0,0.0,37,0.00,,---,0.00,VWS V14.00,2013-02-07 03:23:00,
2013-02-06 22:26:00,15.3,-6.3,30.01,NW,326,0.0,0.0,37,0.00,,---,0.00,VWS V14.00,2013-02-07 03:26:00,
2013-02-06 22:27:00,15.3,-6.3,30.01,NW,326,0.0,0.0,37,0.00,,---,0.00,VWS V14.00,2013-02-07 03:27:00,
2013-02-06 22:28:00,15.3,-6.3,30.01,NW,326,0.0,0.0,37,0.00,,---,0.00,VWS V14.00,2013-02-07 03:28:00,
2013-02-06 22:31:00,15.3,-6.3,30.01,NW,326,0.0,0.0,37,0.00,,---,0.00,VWS V14.00,2013-02-07 03:31:00,
2013-02-06 22:32:00,15.3,-6.3,30.01,NW,326,0.0,0.0,37,0.00,,---,0.00,VWS V14.00,2013-02-07 03:32:00,
2013-02-06 22:33:00,15.3,-6.3,30.01,NW,326,0.0,0.0,37,0.00,,---,0.00,VWS V14.00,2013-02-07 03:33:00,
2013-02-06 22:36:00,15.3,-6.3,30.01,NW,326,0.0,0.0,37,0.00,,---,0.00,VWS V14.00,2013-02-07 03:36:00,
2013-02-06 22:37:00,15.3,-6.3,30.01,NW,326,0.0,0.0,37,0.00,,---,0.00,VWS V14.00,2013-02-07 03:37:00,
2013-02-06 22:38:00,15.3,-6.3,30.01,NW,326,0.0,0.0,37,0.00,,---,0.00,VWS V14.00,2013-02-07 03:38:00,
2013-02-06 22:41:00,15.3,-6.3,30.01,NW,326,0.0,0.0,37,0.00,,---,0.00,VWS V14.00,2013-02-07 03:41:00,
2013-02-06 22:43:00,15.3,-6.3,30.01,NW,326,0.0,0.0,37,0.00,,---,0.00,VWS V14.00,2013-02-07 03:43:00,
2013-02-06 22:46:00,15.3,-6.3,30.01,NW,326,0.0,0.0,37,0.00,,---,0.00,VWS V14.00,2013-02-07 03:46:00,
2013-02-06 22:48:00,15.3,-6.3,30.01,NW,326,0.0,0.0,37,0.00,,---,0.00,VWS V14.00,2013-02-07 03:48:00,
2013-02-06 22:51:00,15.3,-6.3,30.01,NW,326,0.0,0.0,37,0.00,,---,0.00,VWS V14.00,2013-02-07 03:51:00,
2013-02-06 22:53:00,15.3,-5.8,30.01,NW,325,0.0,0.0,38,0.00,,---,0.00,VWS V14.00,2013-02-07 03:53:00,
2013-02-06 22:54:00,15.3,-5.8,30.01,NW,326,0.0,0.0,38,0.00,,---,0.00,VWS V14.00,2013-02-07 03:54:00,
2013-02-06 22:56:00,15.1,-5.9,30.01,NW,326,0.0,0.0,38,0.00,,---,0.00,VWS V14.00,2013-02-07 03:56:00,
2013-02-06 22:58:00,15.1,-5.9,30.01,NW,326,0.0,0.0,38,0.00,,---,0.00,VWS V14.00,2013-02-07 03:58:00,
2013-02-06 22:59:00,15.1,-5.9,30.01,NW,326,0.0,0.0,38,0.00,,---,0.00,VWS V14.00,2013-02-07 03:59:00,
2013-02-06 23:01:00,15.1,-5.9,30.01,NW,326,0.0,0.0,38,0.00,,---,0.00,VWS V14.00,2013-02-07 04:01:00,
2013-02-06 23:03:00,15.1,-5.9,30.01,NW,326,0.0,0.0,38,0.00,,---,0.00,VWS V14.00,2013-02-07 04:03:00,
2013-02-06 23:04:00,15.1,-5.9,30.01,NW,326,0.0,0.0,38,0.00,,---,0.00,VWS V14.00,2013-02-07 04:04:00,
2013-02-06 23:06:00,15.1,-5.9,30.01,NW,326,0.0,0.0,38,0.00,,---,0.00,VWS V14.00,2013-02-07 04:06:00,
2013-02-06 23:08:00,15.1,-5.9,30.01,NW,326,0.0,0.0,38,0.00,,---,0.00,VWS V14.00,2013-02-07 04:08:00,
2013-02-06 23:09:00,15.1,-5.9,30.01,NW,326,0.0,0.0,38,0.00,,---,0.00,VWS V14.00,2013-02-07 04:09:00,
2013-02-06 23:11:00,15.3,-5.8,30.01,NW,326,0.0,0.0,38,0.00,,---,0.00,VWS V14.00,2013-02-07 04:11:00,
2013-02-06 23:12:00,15.3,-5.8,30.01,NW,326,0.0,0.0,38,0.00,,---,0.00,VWS V14.00,2013-02-07 04:12:00,
2013-02-06 23:13:00,15.3,-5.8,30.01,NW,326,0.0,0.0,38,0.00,,---,0.00,VWS V14.00,2013-02-07 04:13:00,
2013-02-06 23:14:00,15.3,-5.8,30.01,NW,326,0.0,0.0,38,0.00,,---,0.00,VWS V14.00,2013-02-07 04:14:00,
2013-02-06 23:16:00,15.3,-5.8,30.01,NW,326,0.0,0.0,38,0.00,,---,0.00,VWS V14.00,2013-02-07 04:16:00,
2013-02-06 23:17:00,15.3,-5.8,30.01,NW,326,0.0,0.0,38,0.00,,---,0.00,VWS V14.00,2013-02-07 04:17:00,
2013-02-06 23:18:00,15.3,-5.8,30.01,NW,326,0.0,0.0,38,0.00,,---,0.00,VWS V14.00,2013-02-07 04:18:00,
2013-02-06 23:19:00,15.3,-5.8,30.01,NW,326,0.0,0.0,38,0.00,,---,0.00,VWS V14.00,2013-02-07 04:19:00,
2013-02-06 23:21:00,15.3,-5.2,30.01,NW,326,0.0,0.0,39,0.00,,---,0.00,VWS V14.00,2013-02-07 04:21:00,
2013-02-06 23:22:00,15.3,-5.2,30.01,NW,326,0.0,0.0,39,0.00,,---,0.00,VWS V14.00,2013-02-07 04:22:00,
2013-02-06 23:23:00,15.3,-5.2,30.01,NW,326,0.0,0.0,39,0.00,,---,0.00,VWS V14.00,2013-02-07 04:23:00,
2013-02-06 23:24:00,15.3,-5.2,30.01,NW,326,0.0,0.0,39,0.00,,---,0.00,VWS V14.00,2013-02-07 04:24:00,
2013-02-06 23:26:00,15.3,-5.2,30.01,NW,326,0.0,0.0,39,0.00,,---,0.00,VWS V14.00,2013-02-07 04:26:00,
2013-02-06 23:27:00,15.3,-5.2,30.01,NW,326,0.0,0.0,39,0.00,,---,0.00,VWS V14.00,2013-02-07 04:27:00,
2013-02-06 23:28:00,15.3,-5.2,30.01,NW,326,0.0,0.0,39,0.00,,---,0.00,VWS V14.00,2013-02-07 04:28:00,
2013-02-06 23:29:00,15.3,-5.2,30.01,NW,326,0.0,0.0,39,0.00,,---,0.00,VWS V14.00,2013-02-07 04:29:00,
2013-02-06 23:31:00,15.3,-5.2,30.01,NW,326,0.0,0.0,39,0.00,,---,0.00,VWS V14.00,2013-02-07 04:31:00,
2013-02-06 23:32:00,15.3,-5.2,30.01,NW,326,0.0,0.0,39,0.00,,---,0.00,VWS V14.00,2013-02-07 04:32:00,
2013-02-06 23:33:00,15.3,-5.2,30.01,NW,326,0.0,0.0,39,0.00,,---,0.00,VWS V14.00,2013-02-07 04:33:00,
2013-02-06 23:34:00,15.3,-5.2,30.01,NW,326,0.0,0.0,39,0.00,,---,0.00,VWS V14.00,2013-02-07 04:34:00,
2013-02-06 23:36:00,15.3,-5.2,30.01,NW,326,0.0,0.0,39,0.00,,---,0.00,VWS V14.00,2013-02-07 04:36:00,
2013-02-06 23:37:00,15.3,-5.2,30.01,NW,326,0.0,0.0,39,0.00,,---,0.00,VWS V14.00,2013-02-07 04:37:00,
2013-02-06 23:39:00,15.3,-5.2,30.01,NW,326,0.0,0.0,39,0.00,,---,0.00,VWS V14.00,2013-02-07 04:39:00,
2013-02-06 23:40:00,15.3,-5.2,30.01,NW,326,0.0,0.0,39,0.00,,---,0.00,VWS V14.00,2013-02-07 04:40:00,
2013-02-06 23:42:00,15.3,-5.2,30.01,NW,326,0.0,0.0,39,0.00,,---,0.00,VWS V14.00,2013-02-07 04:42:00,
2013-02-06 23:44:00,15.3,-5.2,30.01,NW,326,0.0,0.0,39,0.00,,---,0.00,VWS V14.00,2013-02-07 04:44:00,
2013-02-06 23:45:00,15.3,-5.2,30.01,NW,326,0.0,0.0,39,0.00,,---,0.00,VWS V14.00,2013-02-07 04:45:00,
2013-02-06 23:47:00,15.4,-5.1,30.01,NW,326,0.0,0.0,39,0.00,,---,0.00,VWS V14.00,2013-02-07 04:47:00,
2013-02-06 23:49:00,15.4,-5.1,30.01,NW,326,3.4,3.4,39,0.00,,---,0.00,VWS V14.00,2013-02-07 04:49:00,
2013-02-06 23:50:00,15.4,-5.1,30.01,NW,326,0.0,3.4,39,0.00,,---,0.00,VWS V14.00,2013-02-07 04:50:00,
2013-02-06 23:52:00,15.4,-5.1,30.01,NW,326,0.0,0.0,39,0.00,,---,0.00,VWS V14.00,2013-02-07 04:52:00,
2013-02-06 23:54:00,15.4,-5.1,30.01,NW,326,0.0,0.0,39,0.00,,---,0.00,VWS V14.00,2013-02-07 04:54:00,
2013-02-06 23:55:00,15.4,-5.1,30.01,NW,326,0.0,0.0,39,0.00,,---,0.00,VWS V14.00,2013-02-07 04:55:00,
2013-02-06 23:57:00,15.4,-5.1,30.01,NW,326,0.0,0.0,39,0.00,,---,0.00,VWS V14.00,2013-02-07 04:57:00,
2013-02-06 23:59:00,15.4,-5.1,30.01,NW,326,0.0,0.0,39,0.00,,---,0.00,VWS V14.00,2013-02-07 04:59:00,